Time,TemperatureF,DewpointF,PressureIn,WindDirection,WindDirectionDegrees,WindSpeedMPH,WindSpeedGustMPH,Humidity,HourlyPrecipIn,Conditions,Clouds,dailyrainin,SoftwareType,DateUTC
2013-05-01 00:01:00,73.0,72.0,29.76,SSE,157,8.0,8.0,98,0.00,,,0.00,TxWx,2013-05-01 05:01:00,
2013-05-01 00:02:00,73.0,72.0,29.76,SSE,157,6.0,6.0,98,0.00,,,0.00,TxWx,2013-05-01 05:02:00,
2013-05-01 00:05:00,73.0,72.0,29.76,SE,135,7.0,8.0,98,0.00,,,0.00,TxWx,2013-05-01 05:05:00,
2013-05-01 00:06:00,73.0,72.0,29.76,SSE,157,7.0,10.0,98,0.00,,,0.00,TxWx,2013-05-01 05:06:00,
2013-05-01 00:07:00,73.0,72.0,29.76,SE,135,11.0,12.0,98,0.00,,,0.00,TxWx,2013-05-01 05:07:00,
2013-05-01 00:08:00,73.0,72.0,29.76,SSE,157,11.0,11.0,98,0.00,,,0.00,TxWx,2013-05-01 05:08:00,
2013-05-01 00:10:00,73.0,72.0,29.75,South,180,9.0,9.0,98,0.00,,,0.00,TxWx,2013-05-01 05:10:00,
2013-05-01 00:12:00,73.0,73.0,29.76,SSE,157,8.0,10.0,99,0.00,,,0.00,TxWx,2013-05-01 05:12:00,
2013-05-01 00:13:00,73.0,73.0,29.76,SSE,157,10.0,10.0,99,0.00,,,0.00,TxWx,2013-05-01 05:13:00,
2013-05-01 00:14:00,73.0,73.0,29.76,SSW,202,5.0,5.0,99,0.00,,,0.00,TxWx,2013-05-01 05:14:00,
2013-05-01 00:18:00,73.0,73.0,29.76,SSE,157,8.0,8.0,99,0.00,,,0.00,TxWx,2013-05-01 05:18:00,
2013-05-01 00:19:00,73.0,73.0,29.76,SE,135,10.0,10.0,99,0.00,,,0.00,TxWx,2013-05-01 05:19:00,
2013-05-01 00:20:00,73.0,73.0,29.76,SE,135,6.0,6.0,99,0.00,,,0.00,TxWx,2013-05-01 05:20:00,
2013-05-01 00:21:00,73.0,73.0,29.76,SSW,202,11.0,11.0,99,0.00,,,0.00,TxWx,2013-05-01 05:21:00,
2013-05-01 00:25:00,73.0,73.0,29.76,SE,135,3.0,3.0,99,0.00,,,0.00,TxWx,2013-05-01 05:25:00,
2013-05-01 00:26:00,73.0,73.0,29.76,SSE,157,7.0,7.0,99,0.00,,,0.00,TxWx,2013-05-01 05:26:00,
2013-05-01 00:27:00,73.0,73.0,29.76,SSE,157,8.0,8.0,99,0.00,,,0.00,TxWx,2013-05-01 05:27:00,
2013-05-01 00:29:00,73.0,73.0,29.76,South,180,5.0,5.0,99,0.00,,,0.00,TxWx,2013-05-01 05:29:00,
2013-05-01 00:30:00,73.0,73.0,29.76,SE,135,5.0,5.0,99,0.00,,,0.00,TxWx,2013-05-01 05:30:00,
2013-05-01 00:33:00,73.0,73.0,29.76,SSE,157,5.0,5.0,99,0.00,,,0.00,TxWx,2013-05-01 05:33:00,
2013-05-01 00:35:00,73.0,72.0,29.76,SE,135,9.0,9.0,98,0.00,,,0.00,TxWx,2013-05-01 05:35:00,
2013-05-01 00:38:00,73.0,72.0,29.76,SE,135,8.0,10.0,98,0.00,,,0.00,TxWx,2013-05-01 05:38:00,
2013-05-01 00:40:00,73.0,72.0,29.76,South,180,7.0,8.0,98,0.00,,,0.00,TxWx,2013-05-01 05:40:00,
2013-05-01 00:41:00,73.0,72.0,29.76,SSW,202,6.0,6.0,98,0.00,,,0.00,TxWx,2013-05-01 05:41:00,
2013-05-01 00:42:00,73.0,72.0,29.76,SSE,157,10.0,11.0,98,0.00,,,0.00,TxWx,2013-05-01 05:42:00,
2013-05-01 00:45:00,73.0,72.0,29.76,SE,135,11.0,12.0,98,0.00,,,0.00,TxWx,2013-05-01 05:45:00,
2013-05-01 00:46:00,73.0,72.0,29.76,SE,135,8.0,8.0,98,0.00,,,0.00,TxWx,2013-05-01 05:46:00,
2013-05-01 00:47:00,73.0,72.0,29.76,SSE,157,8.0,11.0,98,0.00,,,0.00,TxWx,2013-05-01 05:47:00,
2013-05-01 00:51:00,73.0,72.0,29.76,SW,225,6.0,6.0,98,0.00,,,0.00,TxWx,2013-05-01 05:51:00,
2013-05-01 00:52:00,73.0,72.0,29.76,South,180,14.0,14.0,98,0.00,,,0.00,TxWx,2013-05-01 05:52:00,
2013-05-01 00:56:00,73.0,72.0,29.76,East,90,6.0,6.0,98,0.00,,,0.00,TxWx,2013-05-01 05:56:00,
2013-05-01 00:58:00,73.0,72.0,29.76,SSE,157,8.0,8.0,98,0.00,,,0.00,TxWx,2013-05-01 05:58:00,
2013-05-01 01:00:00,73.0,72.0,29.76,SE,135,11.0,12.0,98,0.00,,,0.00,TxWx,2013-05-01 06:00:00,
2013-05-01 01:02:00,73.0,72.0,29.76,SSW,202,8.0,9.0,98,0.00,,,0.00,TxWx,2013-05-01 06:02:00,
2013-05-01 01:04:00,73.0,72.0,29.76,South,180,7.0,7.0,98,0.00,,,0.00,TxWx,2013-05-01 06:04:00,
2013-05-01 01:05:00,73.0,72.0,29.76,SSE,157,6.0,6.0,98,0.00,,,0.00,TxWx,2013-05-01 06:05:00,
2013-05-01 01:06:00,73.0,72.0,29.76,South,180,4.0,5.0,98,0.00,,,0.00,TxWx,2013-05-01 06:06:00,
2013-05-01 01:07:00,73.0,72.0,29.76,South,180,9.0,10.0,98,0.00,,,0.00,TxWx,2013-05-01 06:07:00,
2013-05-01 01:09:00,73.0,72.0,29.76,South,180,9.0,10.0,98,0.00,,,0.00,TxWx,2013-05-01 06:09:00,
2013-05-01 01:10:00,73.0,73.0,29.76,SSE,157,5.0,5.0,99,0.00,,,0.00,TxWx,2013-05-01 06:10:00,
2013-05-01 01:12:00,73.0,73.0,29.76,SSE,157,9.0,9.0,99,0.00,,,0.00,TxWx,2013-05-01 06:12:00,
2013-05-01 01:15:00,73.0,73.0,29.76,SSW,202,4.0,4.0,99,0.00,,,0.00,TxWx,2013-05-01 06:15:00,
2013-05-01 01:16:00,73.0,73.0,29.76,SSW,202,7.0,7.0,99,0.00,,,0.00,TxWx,2013-05-01 06:16:00,
2013-05-01 01:18:00,73.0,73.0,29.76,SE,135,5.0,6.0,99,0.00,,,0.00,TxWx,2013-05-01 06:18:00,
2013-05-01 01:19:00,73.0,73.0,29.76,SSW,202,8.0,8.0,99,0.00,,,0.00,TxWx,2013-05-01 06:19:00,
2013-05-01 01:20:00,73.0,73.0,29.76,SE,135,9.0,9.0,99,0.00,,,0.00,TxWx,2013-05-01 06:20:00,
2013-05-01 01:21:00,73.0,73.0,29.76,SSE,157,5.0,6.0,99,0.00,,,0.00,TxWx,2013-05-01 06:21:00,
2013-05-01 01:22:00,73.0,73.0,29.76,SSE,157,11.0,11.0,99,0.00,,,0.00,TxWx,2013-05-01 06:22:00,
2013-05-01 01:26:00,73.0,73.0,29.76,SSE,157,6.0,7.0,99,0.00,,,0.00,TxWx,2013-05-01 06:26:00,
2013-05-01 01:27:00,73.0,73.0,29.76,SSE,157,6.0,6.0,99,0.00,,,0.00,TxWx,2013-05-01 06:27:00,
2013-05-01 01:28:00,73.0,73.0,29.76,SSE,157,6.0,7.0,99,0.00,,,0.00,TxWx,2013-05-01 06:28:00,
2013-05-01 01:30:00,73.0,73.0,29.76,SSE,157,8.0,9.0,99,0.00,,,0.00,TxWx,2013-05-01 06:30:00,
2013-05-01 01:31:00,73.0,73.0,29.76,SSW,202,10.0,10.0,99,0.00,,,0.00,TxWx,2013-05-01 06:31:00,
2013-05-01 01:32:00,73.0,73.0,29.76,SSE,157,7.0,7.0,99,0.00,,,0.00,TxWx,2013-05-01 06:32:00,
2013-05-01 01:34:00,73.0,73.0,29.76,SSE,157,6.0,6.0,99,0.00,,,0.00,TxWx,2013-05-01 06:34:00,
2013-05-01 01:36:00,73.0,73.0,29.76,SSE,157,6.0,6.0,99,0.00,,,0.00,TxWx,2013-05-01 06:36:00,
2013-05-01 01:37:00,73.0,73.0,29.76,SSE,157,7.0,8.0,99,0.00,,,0.00,TxWx,2013-05-01 06:37:00,
2013-05-01 01:38:00,73.0,73.0,29.76,SSE,157,10.0,10.0,99,0.00,,,0.00,TxWx,2013-05-01 06:38:00,
2013-05-01 01:40:00,73.0,73.0,29.76,South,180,7.0,8.0,99,0.00,,,0.00,TxWx,2013-05-01 06:40:00,
2013-05-01 01:42:00,73.0,73.0,29.76,South,180,6.0,6.0,99,0.00,,,0.00,TxWx,2013-05-01 06:42:00,
2013-05-01 01:45:00,73.0,73.0,29.76,South,180,4.0,4.0,99,0.00,,,0.00,TxWx,2013-05-01 06:45:00,
2013-05-01 01:46:00,73.0,73.0,29.76,SSW,202,12.0,12.0,99,0.00,,,0.00,TxWx,2013-05-01 06:46:00,
2013-05-01 01:48:00,73.0,73.0,29.76,SSE,157,7.0,7.0,99,0.00,,,0.00,TxWx,2013-05-01 06:48:00,
2013-05-01 01:50:00,73.0,73.0,29.76,South,180,5.0,5.0,99,0.00,,,0.00,TxWx,2013-05-01 06:50:00,
2013-05-01 01:51:00,73.0,73.0,29.76,SSW,202,6.0,6.0,99,0.00,,,0.00,TxWx,2013-05-01 06:51:00,
2013-05-01 01:52:00,73.0,73.0,29.76,SSE,157,5.0,5.0,99,0.00,,,0.00,TxWx,2013-05-01 06:52:00,
2013-05-01 01:54:00,73.0,73.0,29.77,SSW,202,6.0,6.0,99,0.00,,,0.00,TxWx,2013-05-01 06:54:00,
2013-05-01 01:58:00,73.0,73.0,29.76,SSW,202,6.0,6.0,99,0.00,,,0.00,TxWx,2013-05-01 06:58:00,
2013-05-01 01:59:00,73.0,73.0,29.76,SSW,202,8.0,8.0,99,0.00,,,0.00,TxWx,2013-05-01 06:59:00,
2013-05-01 02:00:00,73.0,73.0,29.76,SSW,202,8.0,9.0,99,0.00,,,0.00,TxWx,2013-05-01 07:00:00,
2013-05-01 02:03:00,73.0,73.0,29.76,South,180,4.0,5.0,99,0.00,,,0.00,TxWx,2013-05-01 07:03:00,
2013-05-01 02:05:00,73.0,73.0,29.76,South,180,6.0,6.0,99,0.00,,,0.00,TxWx,2013-05-01 07:05:00,
2013-05-01 02:06:00,73.0,73.0,29.76,SSW,202,6.0,7.0,99,0.00,,,0.00,TxWx,2013-05-01 07:06:00,
2013-05-01 02:07:00,73.0,73.0,29.76,South,180,3.0,4.0,99,0.00,,,0.00,TxWx,2013-05-01 07:07:00,
2013-05-01 02:09:00,73.0,73.0,29.76,SSW,202,6.0,6.0,99,0.00,,,0.00,TxWx,2013-05-01 07:09:00,
2013-05-01 02:10:00,73.0,73.0,29.76,SSW,202,4.0,5.0,99,0.00,,,0.00,TxWx,2013-05-01 07:10:00,
2013-05-01 02:11:00,73.0,73.0,29.76,SSE,157,5.0,5.0,99,0.00,,,0.00,TxWx,2013-05-01 07:11:00,
2013-05-01 02:12:00,73.0,73.0,29.76,South,180,6.0,6.0,99,0.00,,,0.00,TxWx,2013-05-01 07:12:00,
2013-05-01 02:14:00,73.0,73.0,29.76,South,180,6.0,6.0,99,0.00,,,0.00,TxWx,2013-05-01 07:14:00,
2013-05-01 02:15:00,73.0,73.0,29.76,South,180,7.0,7.0,99,0.00,,,0.00,TxWx,2013-05-01 07:15:00,
2013-05-01 02:16:00,73.0,73.0,29.76,SSW,202,6.0,8.0,99,0.00,,,0.00,TxWx,2013-05-01 07:16:00,
2013-05-01 02:17:00,73.0,73.0,29.76,South,180,5.0,5.0,99,0.00,,,0.00,TxWx,2013-05-01 07:17:00,
2013-05-01 02:18:00,73.0,73.0,29.76,SSE,157,5.0,5.0,99,0.00,,,0.00,TxWx,2013-05-01 07:18:00,
2013-05-01 02:20:00,73.0,73.0,29.76,SSW,202,6.0,6.0,99,0.00,,,0.00,TxWx,2013-05-01 07:20:00,
2013-05-01 02:22:00,73.0,73.0,29.76,SSW,202,6.0,6.0,99,0.00,,,0.00,TxWx,2013-05-01 07:22:00,
2013-05-01 02:23:00,73.0,73.0,29.76,South,180,7.0,9.0,99,0.00,,,0.00,TxWx,2013-05-01 07:23:00,
2013-05-01 02:24:00,73.0,73.0,29.76,South,180,7.0,7.0,99,0.00,,,0.00,TxWx,2013-05-01 07:24:00,
2013-05-01 02:28:00,73.0,73.0,29.75,South,180,7.0,8.0,99,0.00,,,0.00,TxWx,2013-05-01 07:28:00,
2013-05-01 02:30:00,73.0,73.0,29.75,South,180,5.0,5.0,99,0.00,,,0.00,TxWx,2013-05-01 07:30:00,
2013-05-01 02:32:00,73.0,73.0,29.75,South,180,5.0,5.0,99,0.00,,,0.00,TxWx,2013-05-01 07:32:00,
2013-05-01 02:35:00,73.0,73.0,29.75,South,180,5.0,6.0,99,0.00,,,0.00,TxWx,2013-05-01 07:35:00,
2013-05-01 02:37:00,73.0,73.0,29.75,South,180,8.0,11.0,99,0.00,,,0.00,TxWx,2013-05-01 07:37:00,
2013-05-01 02:38:00,73.0,73.0,29.75,SSW,202,7.0,8.0,99,0.00,,,0.00,TxWx,2013-05-01 07:38:00,
2013-05-01 02:41:00,73.0,73.0,29.75,South,180,7.0,8.0,99,0.00,,,0.00,TxWx,2013-05-01 07:41:00,
2013-05-01 02:43:00,73.0,73.0,29.75,SSE,157,6.0,7.0,99,0.00,,,0.00,TxWx,2013-05-01 07:43:00,
2013-05-01 02:44:00,73.0,73.0,29.74,SSE,157,6.0,6.0,99,0.00,,,0.00,TxWx,2013-05-01 07:44:00,
2013-05-01 02:45:00,73.0,73.0,29.75,SE,135,5.0,5.0,99,0.00,,,0.00,TxWx,2013-05-01 07:45:00,
2013-05-01 02:46:00,73.0,73.0,29.75,SSE,157,3.0,3.0,99,0.00,,,0.00,TxWx,2013-05-01 07:46:00,
2013-05-01 02:49:00,73.0,73.0,29.74,South,180,3.0,4.0,99,0.00,,,0.00,TxWx,2013-05-01 07:49:00,
2013-05-01 02:50:00,73.0,73.0,29.74,SSW,202,6.0,6.0,99,0.00,,,0.00,TxWx,2013-05-01 07:50:00,
2013-05-01 02:51:00,73.0,73.0,29.74,SSW,202,5.0,6.0,99,0.00,,,0.00,TxWx,2013-05-01 07:51:00,
2013-05-01 02:54:00,73.0,73.0,29.74,SE,135,4.0,5.0,99,0.00,,,0.00,TxWx,2013-05-01 07:54:00,
2013-05-01 02:55:00,73.0,73.0,29.74,SSE,157,2.0,3.0,99,0.00,,,0.00,TxWx,2013-05-01 07:55:00,
2013-05-01 02:57:00,73.0,73.0,29.74,SSW,202,6.0,6.0,99,0.00,,,0.00,TxWx,2013-05-01 07:57:00,
2013-05-01 03:00:00,73.0,73.0,29.74,South,180,5.0,5.0,99,0.00,,,0.00,TxWx,2013-05-01 08:00:00,
2013-05-01 03:01:00,73.0,73.0,29.74,SSE,157,8.0,8.0,99,0.00,,,0.00,TxWx,2013-05-01 08:01:00,
2013-05-01 03:02:00,73.0,73.0,29.74,South,180,6.0,6.0,99,0.00,,,0.00,TxWx,2013-05-01 08:02:00,
2013-05-01 03:04:00,73.0,73.0,29.73,SSE,157,5.0,5.0,99,0.00,,,0.00,TxWx,2013-05-01 08:04:00,
2013-05-01 03:05:00,73.0,73.0,29.73,SE,135,5.0,5.0,99,0.00,,,0.00,TxWx,2013-05-01 08:05:00,
2013-05-01 03:06:00,73.0,73.0,29.73,SSE,157,5.0,5.0,99,0.00,,,0.00,TxWx,2013-05-01 08:06:00,
2013-05-01 03:08:00,73.0,73.0,29.73,SSW,202,6.0,6.0,99,0.00,,,0.00,TxWx,2013-05-01 08:08:00,
2013-05-01 03:10:00,73.0,73.0,29.73,SE,135,6.0,6.0,99,0.00,,,0.00,TxWx,2013-05-01 08:10:00,
2013-05-01 03:11:00,73.0,73.0,29.73,SE,135,6.0,6.0,99,0.00,,,0.00,TxWx,2013-05-01 08:11:00,
2013-05-01 03:13:00,73.0,73.0,29.73,SSE,157,3.0,3.0,99,0.00,,,0.00,TxWx,2013-05-01 08:13:00,
2013-05-01 03:16:00,73.0,73.0,29.73,SSE,157,6.0,6.0,99,0.00,,,0.00,TxWx,2013-05-01 08:16:00,
2013-05-01 03:17:00,73.0,73.0,29.73,SE,135,6.0,6.0,99,0.00,,,0.00,TxWx,2013-05-01 08:17:00,
2013-05-01 03:20:00,73.0,73.0,29.72,SSE,157,3.0,3.0,99,0.00,,,0.00,TxWx,2013-05-01 08:20:00,
2013-05-01 03:22:00,73.0,73.0,29.72,SSE,157,5.0,5.0,100,0.00,,,0.00,TxWx,2013-05-01 08:22:00,
2013-05-01 03:23:00,73.0,73.0,29.72,SSE,157,8.0,8.0,100,0.00,,,0.00,TxWx,2013-05-01 08:23:00,
2013-05-01 03:24:00,73.0,73.0,29.72,SE,135,5.0,5.0,100,0.00,,,0.00,TxWx,2013-05-01 08:24:00,
2013-05-01 03:26:00,73.0,73.0,29.72,SSW,202,3.0,3.0,100,0.00,,,0.00,TxWx,2013-05-01 08:26:00,
2013-05-01 03:28:00,73.0,73.0,29.73,SSW,202,5.0,5.0,100,0.00,,,0.00,TxWx,2013-05-01 08:28:00,
2013-05-01 03:29:00,73.0,73.0,29.73,SE,135,5.0,5.0,100,0.00,,,0.00,TxWx,2013-05-01 08:29:00,
2013-05-01 03:30:00,73.0,73.0,29.73,SSE,157,6.0,6.0,100,0.00,,,0.00,TxWx,2013-05-01 08:30:00,
2013-05-01 03:31:00,73.0,73.0,29.73,South,180,6.0,7.0,100,0.00,,,0.00,TxWx,2013-05-01 08:31:00,
2013-05-01 03:34:00,73.0,73.0,29.73,South,180,5.0,5.0,100,0.00,,,0.00,TxWx,2013-05-01 08:34:00,
2013-05-01 03:35:00,73.0,73.0,29.73,SSE,157,3.0,5.0,100,0.00,,,0.00,TxWx,2013-05-01 08:35:00,
2013-05-01 03:36:00,73.0,73.0,29.73,SE,135,5.0,5.0,100,0.00,,,0.00,TxWx,2013-05-01 08:36:00,
2013-05-01 03:38:00,73.0,73.0,29.72,ESE,112,3.0,5.0,100,0.00,,,0.00,TxWx,2013-05-01 08:38:00,
2013-05-01 03:39:00,73.0,73.0,29.73,SSE,157,5.0,5.0,100,0.00,,,0.00,TxWx,2013-05-01 08:39:00,
2013-05-01 03:40:00,73.0,73.0,29.73,SW,225,4.0,4.0,100,0.00,,,0.00,TxWx,2013-05-01 08:40:00,
2013-05-01 03:42:00,73.0,73.0,29.73,SSW,202,4.0,4.0,100,0.00,,,0.00,TxWx,2013-05-01 08:42:00,
2013-05-01 03:44:00,73.0,73.0,29.73,SSW,202,5.0,5.0,100,0.00,,,0.00,TxWx,2013-05-01 08:44:00,
2013-05-01 03:45:00,73.0,73.0,29.73,SSW,202,4.0,5.0,100,0.00,,,0.00,TxWx,2013-05-01 08:45:00,
2013-05-01 03:50:00,73.0,73.0,29.73,SW,225,3.0,3.0,100,0.00,,,0.00,TxWx,2013-05-01 08:50:00,
2013-05-01 03:51:00,73.0,73.0,29.73,South,180,2.0,2.0,100,0.00,,,0.00,TxWx,2013-05-01 08:51:00,
2013-05-01 03:52:00,73.0,73.0,29.73,SSW,202,3.0,3.0,100,0.00,,,0.00,TxWx,2013-05-01 08:52:00,
2013-05-01 03:54:00,73.0,73.0,29.73,SSW,202,4.0,5.0,100,0.00,,,0.00,TxWx,2013-05-01 08:54:00,
2013-05-01 03:57:00,73.0,73.0,29.73,SSW,202,3.0,3.0,100,0.00,,,0.00,TxWx,2013-05-01 08:57:00,
2013-05-01 03:58:00,73.0,73.0,29.73,South,180,4.0,4.0,100,0.00,,,0.00,TxWx,2013-05-01 08:58:00,
2013-05-01 03:59:00,73.0,73.0,29.73,SSW,202,3.0,3.0,100,0.00,,,0.00,TxWx,2013-05-01 08:59:00,
2013-05-01 04:01:00,73.0,73.0,29.73,South,180,3.0,3.0,100,0.00,,,0.00,TxWx,2013-05-01 09:01:00,
2013-05-01 04:02:00,73.0,73.0,29.73,SSW,202,6.0,6.0,100,0.00,,,0.00,TxWx,2013-05-01 09:02:00,
2013-05-01 04:03:00,72.0,72.0,29.73,SSE,157,4.0,4.0,100,0.00,,,0.00,TxWx,2013-05-01 09:03:00,
2013-05-01 04:06:00,72.0,72.0,29.73,WSW,247,1.0,1.0,100,0.00,,,0.00,TxWx,2013-05-01 09:06:00,
2013-05-01 04:08:00,73.0,73.0,29.73,WSW,247,2.0,2.0,100,0.00,,,0.00,TxWx,2013-05-01 09:08:00,
2013-05-01 04:09:00,73.0,73.0,29.73,SSW,202,5.0,5.0,100,0.00,,,0.00,TxWx,2013-05-01 09:09:00,
2013-05-01 04:12:00,73.0,73.0,29.73,SSW,202,2.0,3.0,100,0.00,,,0.00,TxWx,2013-05-01 09:12:00,
2013-05-01 04:14:00,73.0,73.0,29.73,SW,225,4.0,4.0,100,0.00,,,0.00,TxWx,2013-05-01 09:14:00,
2013-05-01 04:15:00,73.0,73.0,29.73,SW,225,1.0,1.0,100,0.00,,,0.00,TxWx,2013-05-01 09:15:00,
2013-05-01 04:17:00,72.0,72.0,29.73,South,180,5.0,6.0,100,0.00,,,0.00,TxWx,2013-05-01 09:17:00,
2013-05-01 04:19:00,73.0,73.0,29.73,South,180,3.0,3.0,100,0.00,,,0.00,TxWx,2013-05-01 09:19:00,
2013-05-01 04:21:00,73.0,73.0,29.73,South,180,4.0,5.0,100,0.00,,,0.00,TxWx,2013-05-01 09:21:00,
2013-05-01 04:22:00,73.0,73.0,29.73,SSE,157,5.0,6.0,100,0.00,,,0.00,TxWx,2013-05-01 09:22:00,
2013-05-01 04:27:00,72.0,72.0,29.73,SSE,157,5.0,5.0,100,0.00,,,0.00,TxWx,2013-05-01 09:27:00,
2013-05-01 04:28:00,72.0,72.0,29.73,SSE,157,4.0,4.0,100,0.00,,,0.00,TxWx,2013-05-01 09:28:00,
2013-05-01 04:29:00,72.0,72.0,29.73,SSW,202,3.0,3.0,100,0.00,,,0.00,TxWx,2013-05-01 09:29:00,
2013-05-01 04:32:00,72.0,72.0,29.73,SE,135,3.0,4.0,100,0.00,,,0.00,TxWx,2013-05-01 09:32:00,
2013-05-01 04:34:00,72.0,72.0,29.73,SSE,157,3.0,4.0,100,0.00,,,0.00,TxWx,2013-05-01 09:34:00,
2013-05-01 04:35:00,72.0,72.0,29.72,SSE,157,3.0,3.0,100,0.00,,,0.00,TxWx,2013-05-01 09:35:00,
2013-05-01 04:36:00,72.0,72.0,29.73,SSE,157,3.0,3.0,100,0.00,,,0.00,TxWx,2013-05-01 09:36:00,
2013-05-01 04:38:00,72.0,72.0,29.72,SSE,157,1.0,2.0,100,0.00,,,0.00,TxWx,2013-05-01 09:38:00,
2013-05-01 04:39:00,72.0,72.0,29.72,South,180,3.0,3.0,100,0.00,,,0.00,TxWx,2013-05-01 09:39:00,
2013-05-01 04:42:00,72.0,72.0,29.72,SSW,202,3.0,3.0,100,0.00,,,0.00,TxWx,2013-05-01 09:42:00,
2013-05-01 04:43:00,72.0,72.0,29.72,SSE,157,3.0,3.0,100,0.00,,,0.00,TxWx,2013-05-01 09:43:00,
2013-05-01 04:45:00,72.0,72.0,29.72,South,180,3.0,3.0,100,0.00,,,0.00,TxWx,2013-05-01 09:45:00,
2013-05-01 04:46:00,72.0,72.0,29.72,SSE,157,2.0,2.0,100,0.00,,,0.00,TxWx,2013-05-01 09:46:00,
2013-05-01 04:48:00,72.0,72.0,29.72,South,180,1.0,2.0,100,0.00,,,0.00,TxWx,2013-05-01 09:48:00,
2013-05-01 04:49:00,72.0,72.0,29.72,SSW,202,2.0,2.0,100,0.00,,,0.00,TxWx,2013-05-01 09:49:00,
2013-05-01 04:50:00,72.0,72.0,29.72,South,180,2.0,3.0,100,0.00,,,0.00,TxWx,2013-05-01 09:50:00,
2013-05-01 04:53:00,72.0,72.0,29.72,SSW,202,2.0,3.0,100,0.00,,,0.00,TxWx,2013-05-01 09:53:00,
2013-05-01 04:54:00,72.0,72.0,29.72,SSW,202,2.0,3.0,100,0.00,,,0.00,TxWx,2013-05-01 09:54:00,
2013-05-01 04:56:00,72.0,72.0,29.72,South,180,3.0,3.0,100,0.00,,,0.00,TxWx,2013-05-01 09:56:00,
2013-05-01 04:58:00,72.0,72.0,29.73,South,180,4.0,4.0,100,0.00,,,0.00,TxWx,2013-05-01 09:58:00,
2013-05-01 04:59:00,72.0,72.0,29.73,South,180,3.0,3.0,100,0.00,,,0.00,TxWx,2013-05-01 09:59:00,
2013-05-01 05:00:00,72.0,72.0,29.72,SSW,202,3.0,3.0,100,0.00,,,0.00,TxWx,2013-05-01 10:00:00,
2013-05-01 05:03:00,72.0,72.0,29.73,SSW,202,4.0,4.0,100,0.00,,,0.00,TxWx,2013-05-01 10:03:00,
2013-05-01 05:04:00,72.0,72.0,29.73,SSW,202,3.0,3.0,100,0.00,,,0.00,TxWx,2013-05-01 10:04:00,
2013-05-01 05:05:00,72.0,72.0,29.73,SW,225,3.0,3.0,100,0.00,,,0.00,TxWx,2013-05-01 10:05:00,
2013-05-01 05:06:00,72.0,72.0,29.73,South,180,3.0,3.0,100,0.00,,,0.00,TxWx,2013-05-01 10:06:00,
2013-05-01 05:10:00,72.0,72.0,29.73,South,180,2.0,2.0,100,0.00,,,0.00,TxWx,2013-05-01 10:10:00,
2013-05-01 05:11:00,72.0,72.0,29.73,SSW,202,2.0,2.0,100,0.00,,,0.00,TxWx,2013-05-01 10:11:00,
2013-05-01 05:13:00,72.0,72.0,29.73,SSW,202,1.0,1.0,100,0.00,,,0.00,TxWx,2013-05-01 10:13:00,
2013-05-01 05:16:00,72.0,72.0,29.73,SSW,202,2.0,2.0,100,0.00,,,0.00,TxWx,2013-05-01 10:16:00,
2013-05-01 05:17:00,72.0,72.0,29.73,SSW,202,3.0,3.0,100,0.00,,,0.00,TxWx,2013-05-01 10:17:00,
2013-05-01 05:18:00,72.0,72.0,29.73,SSW,202,2.0,2.0,100,0.00,,,0.00,TxWx,2013-05-01 10:18:00,
2013-05-01 05:19:00,72.0,72.0,29.73,SSW,202,2.0,3.0,100,0.00,,,0.00,TxWx,2013-05-01 10:19:00,
2013-05-01 05:20:00,72.0,72.0,29.73,SSW,202,1.0,1.0,100,0.00,,,0.00,TxWx,2013-05-01 10:20:00,
2013-05-01 05:21:00,72.0,72.0,29.73,SSW,202,3.0,3.0,100,0.00,,,0.00,TxWx,2013-05-01 10:21:00,
2013-05-01 05:22:00,72.0,72.0,29.73,SSW,202,3.0,3.0,100,0.00,,,0.00,TxWx,2013-05-01 10:22:00,
2013-05-01 05:24:00,72.0,72.0,29.73,South,180,3.0,3.0,100,0.00,,,0.00,TxWx,2013-05-01 10:24:00,
2013-05-01 05:25:00,72.0,72.0,29.73,SW,225,2.0,3.0,100,0.00,,,0.00,TxWx,2013-05-01 10:25:00,
2013-05-01 05:27:00,72.0,72.0,29.73,South,180,1.0,1.0,100,0.00,,,0.00,TxWx,2013-05-01 10:27:00,
2013-05-01 05:29:00,72.0,72.0,29.73,SSW,202,3.0,3.0,100,0.00,,,0.00,TxWx,2013-05-01 10:29:00,
2013-05-01 05:30:00,72.0,72.0,29.73,SSW,202,3.0,3.0,100,0.00,,,0.00,TxWx,2013-05-01 10:30:00,
2013-05-01 05:35:00,72.0,72.0,29.73,South,180,4.0,5.0,100,0.00,,,0.00,TxWx,2013-05-01 10:35:00,
2013-05-01 05:36:00,72.0,72.0,29.73,WSW,247,3.0,3.0,100,0.00,,,0.00,TxWx,2013-05-01 10:36:00,
2013-05-01 05:37:00,72.0,72.0,29.73,WSW,247,3.0,3.0,100,0.00,,,0.00,TxWx,2013-05-01 10:37:00,
2013-05-01 05:38:00,72.0,72.0,29.73,SSW,202,3.0,3.0,100,0.00,,,0.00,TxWx,2013-05-01 10:38:00,
2013-05-01 05:43:00,72.0,72.0,29.74,SW,225,3.0,3.0,100,0.00,,,0.00,TxWx,2013-05-01 10:43:00,
2013-05-01 05:44:00,72.0,72.0,29.74,SW,225,5.0,5.0,100,0.00,,,0.00,TxWx,2013-05-01 10:44:00,
2013-05-01 05:45:00,72.0,72.0,29.73,SSW,202,6.0,6.0,100,0.00,,,0.00,TxWx,2013-05-01 10:45:00,
2013-05-01 05:48:00,72.0,72.0,29.73,SSW,202,3.0,4.0,100,0.00,,,0.00,TxWx,2013-05-01 10:48:00,
2013-05-01 05:49:00,72.0,72.0,29.73,SW,225,4.0,5.0,100,0.00,,,0.00,TxWx,2013-05-01 10:49:00,
2013-05-01 05:50:00,72.0,72.0,29.73,SSW,202,8.0,9.0,100,0.00,,,0.00,TxWx,2013-05-01 10:50:00,
2013-05-01 05:51:00,72.0,72.0,29.73,SSW,202,6.0,6.0,100,0.00,,,0.00,TxWx,2013-05-01 10:51:00,
2013-05-01 05:53:00,72.0,72.0,29.73,SSW,202,5.0,5.0,100,0.00,,,0.00,TxWx,2013-05-01 10:53:00,
2013-05-01 05:56:00,72.0,72.0,29.74,SSW,202,3.0,3.0,100,0.00,,,0.00,TxWx,2013-05-01 10:56:00,
2013-05-01 05:57:00,72.0,72.0,29.74,SW,225,6.0,6.0,100,0.00,,,0.00,TxWx,2013-05-01 10:57:00,
2013-05-01 06:01:00,72.0,72.0,29.74,SSW,202,8.0,8.0,100,0.00,,,0.00,TxWx,2013-05-01 11:01:00,
2013-05-01 06:02:00,72.0,72.0,29.74,SSW,202,6.0,7.0,100,0.00,,,0.00,TxWx,2013-05-01 11:02:00,
2013-05-01 06:04:00,72.0,72.0,29.74,SSW,202,8.0,9.0,100,0.00,,,0.00,TxWx,2013-05-01 11:04:00,
2013-05-01 06:06:00,72.0,72.0,29.74,SW,225,3.0,4.0,100,0.00,,,0.00,TxWx,2013-05-01 11:06:00,
2013-05-01 06:07:00,72.0,72.0,29.74,WSW,247,5.0,5.0,100,0.00,,,0.00,TxWx,2013-05-01 11:07:00,
2013-05-01 06:09:00,72.0,72.0,29.75,South,180,5.0,6.0,100,0.00,,,0.00,TxWx,2013-05-01 11:09:00,
2013-05-01 06:10:00,72.0,72.0,29.75,South,180,4.0,4.0,100,0.00,,,0.00,TxWx,2013-05-01 11:10:00,
2013-05-01 06:12:00,72.0,72.0,29.75,South,180,5.0,5.0,100,0.00,,,0.00,TxWx,2013-05-01 11:12:00,
2013-05-01 06:13:00,72.0,72.0,29.75,SSE,157,5.0,5.0,100,0.00,,,0.00,TxWx,2013-05-01 11:13:00,
2013-05-01 06:14:00,72.0,72.0,29.75,SSE,157,5.0,5.0,100,0.00,,,0.00,TxWx,2013-05-01 11:14:00,
2013-05-01 06:16:00,72.0,72.0,29.75,SSW,202,3.0,3.0,100,0.00,,,0.00,TxWx,2013-05-01 11:16:00,
2013-05-01 06:17:00,73.0,73.0,29.75,SSW,202,3.0,3.0,100,0.00,,,0.00,TxWx,2013-05-01 11:17:00,
2013-05-01 06:18:00,72.0,72.0,29.75,SE,135,3.0,3.0,100,0.00,,,0.00,TxWx,2013-05-01 11:18:00,
2013-05-01 06:19:00,73.0,73.0,29.75,SSE,157,1.0,1.0,100,0.00,,,0.00,TxWx,2013-05-01 11:19:00,
2013-05-01 06:21:00,72.0,72.0,29.75,SE,135,1.0,1.0,100,0.00,,,0.00,TxWx,2013-05-01 11:21:00,
2013-05-01 06:22:00,73.0,73.0,29.75,SE,135,1.0,1.0,100,0.00,,,0.00,TxWx,2013-05-01 11:22:00,
2013-05-01 06:23:00,73.0,73.0,29.75,SE,135,1.0,1.0,100,0.00,,,0.00,TxWx,2013-05-01 11:23:00,
2013-05-01 06:25:00,72.0,72.0,29.75,South,180,1.0,1.0,100,0.00,,,0.00,TxWx,2013-05-01 11:25:00,
2013-05-01 06:27:00,73.0,73.0,29.75,SSE,157,2.0,2.0,100,0.00,,,0.00,TxWx,2013-05-01 11:27:00,
2013-05-01 06:29:00,72.0,72.0,29.75,SE,135,2.0,2.0,100,0.00,,,0.00,TxWx,2013-05-01 11:29:00,
2013-05-01 06:30:00,72.0,72.0,29.75,ESE,112,2.0,2.0,100,0.00,,,0.00,TxWx,2013-05-01 11:30:00,
2013-05-01 06:32:00,73.0,73.0,29.75,SSE,157,2.0,2.0,100,0.00,,,0.00,TxWx,2013-05-01 11:32:00,
2013-05-01 06:35:00,73.0,73.0,29.76,SE,135,2.0,3.0,100,0.00,,,0.00,TxWx,2013-05-01 11:35:00,
2013-05-01 06:36:00,73.0,73.0,29.76,South,180,1.0,2.0,100,0.00,,,0.00,TxWx,2013-05-01 11:36:00,
2013-05-01 06:37:00,73.0,73.0,29.76,SSE,157,2.0,2.0,100,0.00,,,0.00,TxWx,2013-05-01 11:37:00,
2013-05-01 06:42:00,73.0,73.0,29.76,SE,135,3.0,3.0,100,0.00,,,0.00,TxWx,2013-05-01 11:42:00,
2013-05-01 06:43:00,73.0,73.0,29.76,SE,135,3.0,3.0,100,0.00,,,0.00,TxWx,2013-05-01 11:43:00,
2013-05-01 06:44:00,73.0,73.0,29.76,SE,135,3.0,3.0,100,0.00,,,0.00,TxWx,2013-05-01 11:44:00,
2013-05-01 06:47:00,73.0,73.0,29.76,SE,135,3.0,3.0,100,0.00,,,0.00,TxWx,2013-05-01 11:47:00,
2013-05-01 06:48:00,73.0,73.0,29.76,ESE,112,2.0,3.0,100,0.00,,,0.00,TxWx,2013-05-01 11:48:00,
2013-05-01 06:49:00,73.0,73.0,29.76,SSE,157,2.0,2.0,100,0.00,,,0.00,TxWx,2013-05-01 11:49:00,
2013-05-01 06:53:00,73.0,73.0,29.77,SE,135,3.0,3.0,100,0.00,,,0.00,TxWx,2013-05-01 11:53:00,
2013-05-01 06:54:00,73.0,73.0,29.77,ESE,112,1.0,2.0,100,0.00,,,0.00,TxWx,2013-05-01 11:54:00,
2013-05-01 06:55:00,73.0,73.0,29.77,SSE,157,2.0,2.0,100,0.00,,,0.00,TxWx,2013-05-01 11:55:00,
2013-05-01 06:56:00,73.0,73.0,29.77,SE,135,3.0,3.0,100,0.00,,,0.00,TxWx,2013-05-01 11:56:00,
2013-05-01 06:59:00,73.0,73.0,29.77,SE,135,2.0,2.0,100,0.00,,,0.00,TxWx,2013-05-01 11:59:00,
2013-05-01 07:00:00,73.0,73.0,29.77,SSE,157,3.0,3.0,100,0.00,,,0.00,TxWx,2013-05-01 12:00:00,
2013-05-01 07:01:00,73.0,73.0,29.77,SE,135,3.0,3.0,100,0.00,,,0.00,TxWx,2013-05-01 12:01:00,
2013-05-01 07:05:00,73.0,73.0,29.77,SE,135,3.0,3.0,100,0.00,,,0.00,TxWx,2013-05-01 12:05:00,
2013-05-01 07:06:00,73.0,73.0,29.78,SE,135,3.0,3.0,100,0.00,,,0.00,TxWx,2013-05-01 12:06:00,
2013-05-01 07:07:00,73.0,73.0,29.78,SE,135,3.0,3.0,100,0.00,,,0.00,TxWx,2013-05-01 12:07:00,
2013-05-01 07:11:00,73.0,73.0,29.78,ESE,112,3.0,3.0,100,0.00,,,0.00,TxWx,2013-05-01 12:11:00,
2013-05-01 07:12:00,73.0,73.0,29.78,SE,135,2.0,2.0,100,0.00,,,0.00,TxWx,2013-05-01 12:12:00,
2013-05-01 07:13:00,73.0,73.0,29.78,SE,135,3.0,3.0,100,0.00,,,0.00,TxWx,2013-05-01 12:13:00,
2013-05-01 07:15:00,73.0,73.0,29.78,SSE,157,4.0,5.0,100,0.00,,,0.00,TxWx,2013-05-01 12:15:00,
2013-05-01 07:16:00,73.0,73.0,29.78,SSW,202,3.0,3.0,100,0.00,,,0.00,TxWx,2013-05-01 12:16:00,
2013-05-01 07:17:00,73.0,73.0,29.78,SSE,157,3.0,3.0,100,0.00,,,0.00,TxWx,2013-05-01 12:17:00,
2013-05-01 07:18:00,73.0,73.0,29.78,SSE,157,3.0,3.0,100,0.00,,,0.00,TxWx,2013-05-01 12:18:00,
2013-05-01 07:20:00,73.0,73.0,29.78,SE,135,3.0,3.0,100,0.00,,,0.00,TxWx,2013-05-01 12:20:00,
2013-05-01 07:22:00,73.0,73.0,29.78,South,180,1.0,2.0,100,0.00,,,0.00,TxWx,2013-05-01 12:22:00,
2013-05-01 07:23:00,73.0,73.0,29.79,SW,225,1.0,1.0,100,0.00,,,0.00,TxWx,2013-05-01 12:23:00,
2013-05-01 07:25:00,73.0,73.0,29.79,SSW,202,3.0,3.0,100,0.00,,,0.00,TxWx,2013-05-01 12:25:00,
2013-05-01 07:26:00,73.0,73.0,29.79,SSW,202,3.0,5.0,100,0.00,,,0.00,TxWx,2013-05-01 12:26:00,
2013-05-01 07:28:00,73.0,73.0,29.79,South,180,3.0,3.0,100,0.00,,,0.00,TxWx,2013-05-01 12:28:00,
2013-05-01 07:30:00,73.0,73.0,29.79,SSW,202,1.0,1.0,100,0.00,,,0.00,TxWx,2013-05-01 12:30:00,
2013-05-01 07:31:00,73.0,73.0,29.79,SSW,202,2.0,2.0,100,0.00,,,0.00,TxWx,2013-05-01 12:31:00,
2013-05-01 07:34:00,73.0,73.0,29.79,SSW,202,3.0,4.0,100,0.00,,,0.00,TxWx,2013-05-01 12:34:00,
2013-05-01 07:35:00,73.0,73.0,29.79,SSW,202,4.0,4.0,100,0.00,,,0.00,TxWx,2013-05-01 12:35:00,
2013-05-01 07:36:00,73.0,73.0,29.78,SSW,202,4.0,4.0,100,0.00,,,0.00,TxWx,2013-05-01 12:36:00,
2013-05-01 07:37:00,73.0,73.0,29.78,SSW,202,4.0,4.0,100,0.00,,,0.00,TxWx,2013-05-01 12:37:00,
2013-05-01 07:40:00,73.0,73.0,29.78,WSW,247,3.0,3.0,100,0.00,,,0.00,TxWx,2013-05-01 12:40:00,
2013-05-01 07:41:00,73.0,73.0,29.78,SE,135,2.0,3.0,100,0.00,,,0.00,TxWx,2013-05-01 12:41:00,
2013-05-01 07:44:00,73.0,73.0,29.78,SSW,202,4.0,5.0,100,0.00,,,0.00,TxWx,2013-05-01 12:44:00,
2013-05-01 07:46:00,73.0,73.0,29.79,SSW,202,5.0,5.0,100,0.00,,,0.00,TxWx,2013-05-01 12:46:00,
2013-05-01 07:48:00,73.0,73.0,29.78,SE,135,4.0,4.0,100,0.00,,,0.00,TxWx,2013-05-01 12:48:00,
2013-05-01 07:50:00,73.0,73.0,29.79,SW,225,5.0,5.0,100,0.00,,,0.00,TxWx,2013-05-01 12:50:00,
2013-05-01 07:51:00,73.0,73.0,29.79,SSW,202,3.0,3.0,100,0.00,,,0.00,TxWx,2013-05-01 12:51:00,
2013-05-01 07:52:00,73.0,73.0,29.79,SW,225,4.0,4.0,100,0.00,,,0.00,TxWx,2013-05-01 12:52:00,
2013-05-01 07:53:00,73.0,73.0,29.79,SW,225,6.0,6.0,100,0.00,,,0.00,TxWx,2013-05-01 12:53:00,
2013-05-01 07:55:00,73.0,73.0,29.79,SW,225,4.0,5.0,100,0.00,,,0.00,TxWx,2013-05-01 12:55:00,
2013-05-01 07:57:00,73.0,73.0,29.79,SSW,202,4.0,4.0,100,0.00,,,0.00,TxWx,2013-05-01 12:57:00,
2013-05-01 08:00:00,73.0,73.0,29.79,SSW,202,5.0,5.0,100,0.00,,,0.00,TxWx,2013-05-01 13:00:00,
2013-05-01 08:03:00,73.0,73.0,29.79,SW,225,5.0,6.0,100,0.00,,,0.00,TxWx,2013-05-01 13:03:00,
2013-05-01 08:04:00,73.0,73.0,29.79,SSW,202,4.0,4.0,100,0.00,,,0.00,TxWx,2013-05-01 13:04:00,
2013-05-01 08:05:00,73.0,73.0,29.79,SSW,202,7.0,7.0,100,0.00,,,0.00,TxWx,2013-05-01 13:05:00,
2013-05-01 08:06:00,73.0,73.0,29.79,SW,225,7.0,7.0,100,0.00,,,0.00,TxWx,2013-05-01 13:06:00,
2013-05-01 08:08:00,73.0,73.0,29.79,WSW,247,4.0,5.0,100,0.00,,,0.00,TxWx,2013-05-01 13:08:00,
2013-05-01 08:09:00,73.0,73.0,29.79,SW,225,4.0,4.0,100,0.00,,,0.00,TxWx,2013-05-01 13:09:00,
2013-05-01 08:11:00,73.0,73.0,29.79,SW,225,7.0,8.0,100,0.00,,,0.00,TxWx,2013-05-01 13:11:00,
2013-05-01 08:12:00,73.0,73.0,29.79,SW,225,5.0,6.0,100,0.00,,,0.00,TxWx,2013-05-01 13:12:00,
2013-05-01 08:13:00,73.0,73.0,29.79,SW,225,5.0,5.0,100,0.00,,,0.00,TxWx,2013-05-01 13:13:00,
2013-05-01 08:14:00,73.0,73.0,29.79,SW,225,5.0,5.0,100,0.00,,,0.00,TxWx,2013-05-01 13:14:00,
2013-05-01 08:15:00,73.0,73.0,29.79,SSW,202,6.0,6.0,100,0.00,,,0.00,TxWx,2013-05-01 13:15:00,
2013-05-01 08:16:00,73.0,73.0,29.79,SSW,202,6.0,6.0,100,0.00,,,0.00,TxWx,2013-05-01 13:16:00,
2013-05-01 08:17:00,73.0,73.0,29.79,SSW,202,8.0,8.0,100,0.00,,,0.00,TxWx,2013-05-01 13:17:00,
2013-05-01 08:18:00,73.0,73.0,29.79,WSW,247,4.0,5.0,100,0.00,,,0.00,TxWx,2013-05-01 13:18:00,
2013-05-01 08:19:00,73.0,73.0,29.79,SSE,157,2.0,3.0,100,0.00,,,0.00,TxWx,2013-05-01 13:19:00,
2013-05-01 08:21:00,73.0,73.0,29.79,WSW,247,3.0,3.0,100,0.00,,,0.00,TxWx,2013-05-01 13:21:00,
2013-05-01 08:22:00,73.0,73.0,29.79,SSW,202,7.0,7.0,100,0.00,,,0.00,TxWx,2013-05-01 13:22:00,
2013-05-01 08:23:00,73.0,73.0,29.79,SSW,202,6.0,6.0,100,0.00,,,0.00,TxWx,2013-05-01 13:23:00,
2013-05-01 08:25:00,73.0,73.0,29.79,SSW,202,5.0,5.0,100,0.00,,,0.00,TxWx,2013-05-01 13:25:00,
2013-05-01 08:26:00,73.0,73.0,29.79,South,180,5.0,5.0,100,0.00,,,0.00,TxWx,2013-05-01 13:26:00,
2013-05-01 08:27:00,73.0,73.0,29.80,SW,225,5.0,5.0,100,0.00,,,0.00,TxWx,2013-05-01 13:27:00,
2013-05-01 08:29:00,73.0,73.0,29.79,South,180,5.0,5.0,100,0.00,,,0.00,TxWx,2013-05-01 13:29:00,
2013-05-01 08:30:00,73.0,73.0,29.79,SSW,202,6.0,6.0,100,0.00,,,0.00,TxWx,2013-05-01 13:30:00,
2013-05-01 08:32:00,73.0,73.0,29.79,SSE,157,5.0,7.0,100,0.00,,,0.00,TxWx,2013-05-01 13:32:00,
2013-05-01 08:33:00,73.0,73.0,29.79,SSW,202,6.0,8.0,100,0.00,,,0.00,TxWx,2013-05-01 13:33:00,
2013-05-01 08:34:00,73.0,73.0,29.79,SSW,202,6.0,7.0,100,0.00,,,0.00,TxWx,2013-05-01 13:34:00,
2013-05-01 08:37:00,73.0,73.0,29.79,SSW,202,3.0,4.0,100,0.00,,,0.00,TxWx,2013-05-01 13:37:00,
2013-05-01 08:38:00,73.0,73.0,29.80,SSE,157,5.0,5.0,100,0.00,,,0.00,TxWx,2013-05-01 13:38:00,
2013-05-01 08:39:00,73.0,73.0,29.80,South,180,6.0,6.0,100,0.00,,,0.00,TxWx,2013-05-01 13:39:00,
2013-05-01 08:40:00,73.0,73.0,29.80,SSE,157,6.0,6.0,100,0.00,,,0.00,TxWx,2013-05-01 13:40:00,
2013-05-01 08:42:00,73.0,73.0,29.80,South,180,5.0,5.0,100,0.00,,,0.00,TxWx,2013-05-01 13:42:00,
2013-05-01 08:44:00,74.0,74.0,29.80,SW,225,3.0,3.0,100,0.00,,,0.00,TxWx,2013-05-01 13:44:00,
2013-05-01 08:45:00,74.0,74.0,29.80,SSW,202,5.0,5.0,100,0.00,,,0.00,TxWx,2013-05-01 13:45:00,
2013-05-01 08:46:00,74.0,74.0,29.80,SW,225,5.0,5.0,100,0.00,,,0.00,TxWx,2013-05-01 13:46:00,
2013-05-01 08:49:00,74.0,74.0,29.79,South,180,2.0,3.0,100,0.00,,,0.00,TxWx,2013-05-01 13:49:00,
2013-05-01 08:50:00,74.0,74.0,29.80,SSE,157,6.0,6.0,100,0.00,,,0.00,TxWx,2013-05-01 13:50:00,
2013-05-01 08:52:00,74.0,74.0,29.80,South,180,5.0,5.0,99,0.00,,,0.00,TxWx,2013-05-01 13:52:00,
2013-05-01 08:54:00,74.0,74.0,29.80,SSW,202,7.0,7.0,99,0.00,,,0.00,TxWx,2013-05-01 13:54:00,
2013-05-01 08:55:00,74.0,74.0,29.79,SW,225,5.0,6.0,99,0.00,,,0.00,TxWx,2013-05-01 13:55:00,
2013-05-01 08:57:00,74.0,74.0,29.79,SSW,202,6.0,6.0,99,0.00,,,0.00,TxWx,2013-05-01 13:57:00,
2013-05-01 08:59:00,74.0,73.0,29.80,SSE,157,7.0,8.0,98,0.00,,,0.00,TxWx,2013-05-01 13:59:00,
2013-05-01 09:00:00,74.0,73.0,29.80,SSE,157,6.0,6.0,98,0.00,,,0.00,TxWx,2013-05-01 14:00:00,
2013-05-01 09:01:00,74.0,73.0,29.80,SSE,157,5.0,5.0,98,0.00,,,0.00,TxWx,2013-05-01 14:01:00,
2013-05-01 09:05:00,74.0,73.0,29.80,SSW,202,7.0,7.0,98,0.00,,,0.00,TxWx,2013-05-01 14:05:00,
2013-05-01 09:07:00,75.0,74.0,29.79,SSE,157,8.0,8.0,98,0.00,,,0.00,TxWx,2013-05-01 14:07:00,
2013-05-01 09:09:00,75.0,74.0,29.79,South,180,8.0,9.0,97,0.00,,,0.00,TxWx,2013-05-01 14:09:00,
2013-05-01 09:10:00,75.0,74.0,29.79,SSW,202,4.0,4.0,97,0.00,,,0.00,TxWx,2013-05-01 14:10:00,
2013-05-01 09:11:00,75.0,74.0,29.79,SSW,202,3.0,4.0,97,0.00,,,0.00,TxWx,2013-05-01 14:11:00,
2013-05-01 09:12:00,75.0,74.0,29.79,South,180,4.0,4.0,97,0.00,,,0.00,TxWx,2013-05-01 14:12:00,
2013-05-01 09:16:00,75.0,74.0,29.79,SE,135,6.0,6.0,97,0.00,,,0.00,TxWx,2013-05-01 14:16:00,
2013-05-01 09:18:00,75.0,74.0,29.79,SSW,202,5.0,5.0,97,0.00,,,0.00,TxWx,2013-05-01 14:18:00,
2013-05-01 09:19:00,75.0,74.0,29.79,SSW,202,5.0,6.0,96,0.00,,,0.00,TxWx,2013-05-01 14:19:00,
2013-05-01 09:21:00,75.0,74.0,29.80,SW,225,4.0,5.0,97,0.00,,,0.00,TxWx,2013-05-01 14:21:00,
2013-05-01 09:22:00,75.0,74.0,29.80,SSE,157,3.0,3.0,97,0.00,,,0.00,TxWx,2013-05-01 14:22:00,
2013-05-01 09:24:00,75.0,74.0,29.80,South,180,6.0,6.0,97,0.00,,,0.00,TxWx,2013-05-01 14:24:00,
2013-05-01 09:26:00,75.0,74.0,29.80,SSE,157,6.0,7.0,97,0.00,,,0.00,TxWx,2013-05-01 14:26:00,
2013-05-01 09:27:00,75.0,74.0,29.80,SE,135,5.0,5.0,97,0.00,,,0.00,TxWx,2013-05-01 14:27:00,
2013-05-01 09:29:00,75.0,74.0,29.80,SSE,157,5.0,5.0,96,0.00,,,0.00,TxWx,2013-05-01 14:29:00,
2013-05-01 09:30:00,75.0,74.0,29.80,SSE,157,7.0,7.0,96,0.00,,,0.00,TxWx,2013-05-01 14:30:00,
2013-05-01 09:31:00,75.0,74.0,29.80,SSW,202,5.0,5.0,96,0.00,,,0.00,TxWx,2013-05-01 14:31:00,
2013-05-01 09:33:00,76.0,75.0,29.80,SSE,157,4.0,4.0,96,0.00,,,0.00,TxWx,2013-05-01 14:33:00,
2013-05-01 09:34:00,76.0,75.0,29.80,SW,225,3.0,3.0,96,0.00,,,0.00,TxWx,2013-05-01 14:34:00,
2013-05-01 09:35:00,76.0,75.0,29.80,SSW,202,4.0,4.0,96,0.00,,,0.00,TxWx,2013-05-01 14:35:00,
2013-05-01 09:40:00,76.0,74.0,29.80,SSW,202,8.0,8.0,94,0.00,,,0.00,TxWx,2013-05-01 14:40:00,
2013-05-01 09:41:00,76.0,74.0,29.80,SSW,202,7.0,8.0,94,0.00,,,0.00,TxWx,2013-05-01 14:41:00,
2013-05-01 09:42:00,76.0,74.0,29.80,SW,225,5.0,5.0,94,0.00,,,0.00,TxWx,2013-05-01 14:42:00,
2013-05-01 09:45:00,76.0,74.0,29.80,WSW,247,3.0,3.0,94,0.00,,,0.00,TxWx,2013-05-01 14:45:00,
2013-05-01 09:46:00,76.0,74.0,29.80,SE,135,5.0,5.0,94,0.00,,,0.00,TxWx,2013-05-01 14:46:00,
2013-05-01 09:48:00,76.0,74.0,29.80,South,180,5.0,6.0,94,0.00,,,0.00,TxWx,2013-05-01 14:48:00,
2013-05-01 09:49:00,76.0,74.0,29.80,SSW,202,5.0,6.0,93,0.00,,,0.00,TxWx,2013-05-01 14:49:00,
2013-05-01 09:52:00,76.0,74.0,29.80,SE,135,9.0,10.0,93,0.00,,,0.00,TxWx,2013-05-01 14:52:00,
2013-05-01 09:55:00,76.0,73.0,29.80,SSE,157,6.0,6.0,92,0.00,,,0.00,TxWx,2013-05-01 14:55:00,
2013-05-01 09:56:00,76.0,73.0,29.80,SSE,157,6.0,6.0,92,0.00,,,0.00,TxWx,2013-05-01 14:56:00,
2013-05-01 09:57:00,76.0,73.0,29.80,SSE,157,4.0,5.0,92,0.00,,,0.00,TxWx,2013-05-01 14:57:00,
2013-05-01 09:58:00,76.0,73.0,29.80,SSE,157,5.0,5.0,92,0.00,,,0.00,TxWx,2013-05-01 14:58:00,
2013-05-01 10:01:00,76.0,73.0,29.80,SE,135,8.0,11.0,92,0.00,,,0.00,TxWx,2013-05-01 15:01:00,
2013-05-01 10:03:00,77.0,74.0,29.80,SSE,157,5.0,5.0,92,0.00,,,0.00,TxWx,2013-05-01 15:03:00,
2013-05-01 10:04:00,78.0,75.0,29.81,South,180,3.0,4.0,92,0.00,,,0.00,TxWx,2013-05-01 15:04:00,
2013-05-01 10:06:00,77.0,74.0,29.80,ESE,112,6.0,6.0,90,0.00,,,0.00,TxWx,2013-05-01 15:06:00,
2013-05-01 10:09:00,77.0,74.0,29.80,SSE,157,4.0,4.0,90,0.00,,,0.00,TxWx,2013-05-01 15:09:00,
2013-05-01 10:10:00,77.0,74.0,29.80,South,180,6.0,6.0,90,0.00,,,0.00,TxWx,2013-05-01 15:10:00,
2013-05-01 10:11:00,76.0,73.0,29.80,South,180,8.0,8.0,90,0.00,,,0.00,TxWx,2013-05-01 15:11:00,
2013-05-01 10:13:00,76.0,73.0,29.80,SSW,202,7.0,7.0,90,0.00,,,0.00,TxWx,2013-05-01 15:13:00,
2013-05-01 10:14:00,76.0,73.0,29.81,SE,135,6.0,7.0,90,0.00,,,0.00,TxWx,2013-05-01 15:14:00,
2013-05-01 10:16:00,76.0,73.0,29.81,SSE,157,7.0,8.0,90,0.00,,,0.00,TxWx,2013-05-01 15:16:00,
2013-05-01 10:18:00,77.0,74.0,29.81,South,180,7.0,8.0,90,0.00,,,0.00,TxWx,2013-05-01 15:18:00,
2013-05-01 10:21:00,77.0,74.0,29.81,SSE,157,6.0,8.0,90,0.00,,,0.00,TxWx,2013-05-01 15:21:00,
2013-05-01 10:22:00,77.0,73.0,29.81,SSE,157,5.0,5.0,89,0.00,,,0.00,TxWx,2013-05-01 15:22:00,
2013-05-01 10:23:00,77.0,73.0,29.81,SE,135,6.0,6.0,89,0.00,,,0.00,TxWx,2013-05-01 15:23:00,
2013-05-01 10:26:00,77.0,74.0,29.81,ESE,112,5.0,5.0,91,0.00,,,0.00,TxWx,2013-05-01 15:26:00,
2013-05-01 10:27:00,77.0,74.0,29.81,SE,135,5.0,6.0,91,0.00,,,0.00,TxWx,2013-05-01 15:27:00,
2013-05-01 10:28:00,76.0,73.0,29.81,SE,135,8.0,8.0,91,0.00,,,0.00,TxWx,2013-05-01 15:28:00,
2013-05-01 10:29:00,77.0,74.0,29.81,SE,135,8.0,8.0,91,0.00,,,0.00,TxWx,2013-05-01 15:29:00,
2013-05-01 10:32:00,77.0,74.0,29.81,SE,135,9.0,9.0,91,0.00,,,0.00,TxWx,2013-05-01 15:32:00,
2013-05-01 10:33:00,77.0,74.0,29.81,SE,135,6.0,6.0,91,0.00,,,0.00,TxWx,2013-05-01 15:33:00,
2013-05-01 10:34:00,77.0,74.0,29.81,SSE,157,8.0,8.0,91,0.00,,,0.00,TxWx,2013-05-01 15:34:00,
2013-05-01 10:37:00,77.0,74.0,29.81,SE,135,8.0,8.0,90,0.00,,,0.00,TxWx,2013-05-01 15:37:00,
2013-05-01 10:40:00,78.0,74.0,29.81,SE,135,4.0,5.0,89,0.00,,,0.00,TxWx,2013-05-01 15:40:00,
2013-05-01 10:42:00,78.0,75.0,29.81,ESE,112,6.0,6.0,90,0.00,,,0.00,TxWx,2013-05-01 15:42:00,
2013-05-01 10:43:00,78.0,74.0,29.81,SSE,157,8.0,11.0,89,0.00,,,0.00,TxWx,2013-05-01 15:43:00,
2013-05-01 10:44:00,78.0,74.0,29.81,ESE,112,4.0,5.0,89,0.00,,,0.00,TxWx,2013-05-01 15:44:00,
2013-05-01 10:47:00,77.0,73.0,29.81,SSE,157,8.0,10.0,88,0.00,,,0.00,TxWx,2013-05-01 15:47:00,
2013-05-01 10:48:00,77.0,73.0,29.81,SSE,157,6.0,6.0,89,0.00,,,0.00,TxWx,2013-05-01 15:48:00,
2013-05-01 10:49:00,77.0,73.0,29.81,SE,135,6.0,6.0,89,0.00,,,0.00,TxWx,2013-05-01 15:49:00,
2013-05-01 10:51:00,77.0,74.0,29.81,SE,135,8.0,8.0,90,0.00,,,0.00,TxWx,2013-05-01 15:51:00,
2013-05-01 10:52:00,76.0,73.0,29.81,ENE,67,7.0,7.0,91,0.00,,,0.00,TxWx,2013-05-01 15:52:00,
2013-05-01 10:53:00,76.0,73.0,29.81,SE,135,12.0,12.0,91,0.00,,,0.00,TxWx,2013-05-01 15:53:00,
2013-05-01 10:55:00,75.0,72.0,29.81,East,90,10.0,11.0,92,0.00,,,0.00,TxWx,2013-05-01 15:55:00,
2013-05-01 10:56:00,75.0,73.0,29.82,ESE,112,11.0,11.0,93,0.00,,,0.00,TxWx,2013-05-01 15:56:00,
2013-05-01 10:59:00,75.0,73.0,29.81,ESE,112,13.0,13.0,94,0.00,,,0.00,TxWx,2013-05-01 15:59:00,
2013-05-01 11:00:00,75.0,73.0,29.82,ESE,112,11.0,11.0,94,0.00,,,0.00,TxWx,2013-05-01 16:00:00,
2013-05-01 11:02:00,74.0,72.0,29.82,ESE,112,13.0,13.0,95,0.00,,,0.00,TxWx,2013-05-01 16:02:00,
2013-05-01 11:04:00,75.0,74.0,29.82,ESE,112,12.0,12.0,96,0.00,,,0.00,TxWx,2013-05-01 16:04:00,
2013-05-01 11:06:00,74.0,73.0,29.82,East,90,7.0,8.0,96,0.00,,,0.00,TxWx,2013-05-01 16:06:00,
2013-05-01 11:07:00,74.0,73.0,29.82,East,90,10.0,10.0,96,0.00,,,0.00,TxWx,2013-05-01 16:07:00,
2013-05-01 11:10:00,74.0,73.0,29.82,ENE,67,11.0,11.0,96,0.00,,,0.00,TxWx,2013-05-01 16:10:00,
2013-05-01 11:11:00,74.0,73.0,29.82,East,90,9.0,11.0,96,0.00,,,0.00,TxWx,2013-05-01 16:11:00,
2013-05-01 11:13:00,74.0,73.0,29.82,ESE,112,9.0,11.0,97,0.00,,,0.00,TxWx,2013-05-01 16:13:00,
2013-05-01 11:14:00,74.0,73.0,29.82,SE,135,11.0,11.0,97,0.00,,,0.00,TxWx,2013-05-01 16:14:00,
2013-05-01 11:15:00,75.0,74.0,29.82,ESE,112,10.0,10.0,97,0.00,,,0.00,TxWx,2013-05-01 16:15:00,
2013-05-01 11:16:00,74.0,73.0,29.82,ESE,112,9.0,10.0,97,0.00,,,0.00,TxWx,2013-05-01 16:16:00,
2013-05-01 11:17:00,75.0,74.0,29.82,ESE,112,8.0,9.0,97,0.00,,,0.00,TxWx,2013-05-01 16:17:00,
2013-05-01 11:19:00,75.0,74.0,29.82,ENE,67,11.0,11.0,98,0.00,,,0.00,TxWx,2013-05-01 16:19:00,
2013-05-01 11:20:00,75.0,74.0,29.82,ENE,67,11.0,14.0,97,0.00,,,0.00,TxWx,2013-05-01 16:20:00,
2013-05-01 11:21:00,75.0,74.0,29.82,East,90,11.0,11.0,97,0.00,,,0.00,TxWx,2013-05-01 16:21:00,
2013-05-01 11:22:00,75.0,74.0,29.82,ESE,112,8.0,8.0,97,0.00,,,0.00,TxWx,2013-05-01 16:22:00,
2013-05-01 11:23:00,75.0,74.0,29.82,East,90,11.0,13.0,97,0.00,,,0.00,TxWx,2013-05-01 16:23:00,
2013-05-01 11:25:00,75.0,74.0,29.82,ESE,112,11.0,11.0,97,0.00,,,0.00,TxWx,2013-05-01 16:25:00,
2013-05-01 11:27:00,75.0,74.0,29.82,ESE,112,7.0,7.0,97,0.00,,,0.00,TxWx,2013-05-01 16:27:00,
2013-05-01 11:28:00,75.0,74.0,29.82,East,90,11.0,13.0,97,0.00,,,0.00,TxWx,2013-05-01 16:28:00,
2013-05-01 11:30:00,75.0,74.0,29.82,East,90,10.0,11.0,97,0.00,,,0.00,TxWx,2013-05-01 16:30:00,
2013-05-01 11:31:00,75.0,74.0,29.82,SE,135,10.0,10.0,97,0.00,,,0.00,TxWx,2013-05-01 16:31:00,
2013-05-01 11:32:00,76.0,75.0,29.82,ESE,112,8.0,9.0,97,0.00,,,0.00,TxWx,2013-05-01 16:32:00,
2013-05-01 11:34:00,76.0,75.0,29.82,SE,135,9.0,9.0,97,0.00,,,0.00,TxWx,2013-05-01 16:34:00,
2013-05-01 11:36:00,76.0,75.0,29.82,ESE,112,7.0,8.0,96,0.00,,,0.00,TxWx,2013-05-01 16:36:00,
2013-05-01 11:37:00,76.0,75.0,29.82,ESE,112,10.0,10.0,96,0.00,,,0.00,TxWx,2013-05-01 16:37:00,
2013-05-01 11:38:00,75.0,74.0,29.82,SE,135,13.0,13.0,96,0.00,,,0.00,TxWx,2013-05-01 16:38:00,
2013-05-01 11:39:00,76.0,75.0,29.82,East,90,8.0,8.0,97,0.00,,,0.00,TxWx,2013-05-01 16:39:00,
2013-05-01 11:43:00,76.0,75.0,29.82,ESE,112,8.0,8.0,97,0.00,,,0.00,TxWx,2013-05-01 16:43:00,
2013-05-01 11:44:00,76.0,75.0,29.82,ESE,112,8.0,11.0,97,0.00,,,0.00,TxWx,2013-05-01 16:44:00,
2013-05-01 11:45:00,75.0,74.0,29.82,ESE,112,8.0,10.0,96,0.00,,,0.00,TxWx,2013-05-01 16:45:00,
2013-05-01 11:46:00,76.0,75.0,29.82,East,90,8.0,9.0,96,0.00,,,0.00,TxWx,2013-05-01 16:46:00,
2013-05-01 11:49:00,76.0,75.0,29.82,SE,135,8.0,8.0,96,0.00,,,0.00,TxWx,2013-05-01 16:49:00,
2013-05-01 11:50:00,76.0,75.0,29.82,ESE,112,11.0,11.0,96,0.00,,,0.00,TxWx,2013-05-01 16:50:00,
2013-05-01 11:51:00,76.0,75.0,29.81,SE,135,6.0,7.0,96,0.00,,,0.00,TxWx,2013-05-01 16:51:00,
2013-05-01 11:52:00,76.0,75.0,29.81,East,90,7.0,7.0,96,0.00,,,0.00,TxWx,2013-05-01 16:52:00,
2013-05-01 11:55:00,76.0,75.0,29.81,East,90,11.0,14.0,96,0.00,,,0.00,TxWx,2013-05-01 16:55:00,
2013-05-01 11:56:00,76.0,75.0,29.82,ESE,112,10.0,10.0,96,0.00,,,0.00,TxWx,2013-05-01 16:56:00,
2013-05-01 11:57:00,76.0,75.0,29.81,SE,135,9.0,10.0,96,0.00,,,0.00,TxWx,2013-05-01 16:57:00,
2013-05-01 11:58:00,76.0,75.0,29.82,ESE,112,13.0,13.0,96,0.00,,,0.00,TxWx,2013-05-01 16:58:00,
2013-05-01 12:00:00,75.0,74.0,29.82,ESE,112,11.0,11.0,96,0.00,,,0.00,TxWx,2013-05-01 17:00:00,
2013-05-01 12:01:00,75.0,74.0,29.82,SE,135,10.0,10.0,96,0.00,,,0.00,TxWx,2013-05-01 17:01:00,
2013-05-01 12:02:00,76.0,75.0,29.82,ESE,112,10.0,10.0,96,0.00,,,0.00,TxWx,2013-05-01 17:02:00,
2013-05-01 12:03:00,75.0,74.0,29.81,East,90,11.0,11.0,96,0.00,,,0.00,TxWx,2013-05-01 17:03:00,
2013-05-01 12:06:00,75.0,74.0,29.81,East,90,12.0,14.0,96,0.00,,,0.00,TxWx,2013-05-01 17:06:00,
2013-05-01 12:08:00,76.0,75.0,29.81,ESE,112,7.0,8.0,96,0.00,,,0.00,TxWx,2013-05-01 17:08:00,
2013-05-01 12:09:00,76.0,75.0,29.81,ESE,112,13.0,14.0,96,0.00,,,0.00,TxWx,2013-05-01 17:09:00,
2013-05-01 12:10:00,76.0,75.0,29.81,East,90,6.0,6.0,96,0.00,,,0.00,TxWx,2013-05-01 17:10:00,
2013-05-01 12:11:00,76.0,75.0,29.81,SE,135,7.0,7.0,96,0.00,,,0.00,TxWx,2013-05-01 17:11:00,
2013-05-01 12:13:00,76.0,75.0,29.81,ESE,112,11.0,12.0,96,0.00,,,0.00,TxWx,2013-05-01 17:13:00,
2013-05-01 12:14:00,76.0,75.0,29.81,ESE,112,7.0,10.0,96,0.00,,,0.00,TxWx,2013-05-01 17:14:00,
2013-05-01 12:16:00,76.0,75.0,29.81,ESE,112,8.0,8.0,96,0.00,,,0.00,TxWx,2013-05-01 17:16:00,
2013-05-01 12:17:00,76.0,75.0,29.81,East,90,8.0,8.0,96,0.00,,,0.00,TxWx,2013-05-01 17:17:00,
2013-05-01 12:18:00,76.0,75.0,29.81,SE,135,7.0,8.0,96,0.00,,,0.00,TxWx,2013-05-01 17:18:00,
2013-05-01 12:19:00,76.0,74.0,29.81,ESE,112,12.0,12.0,95,0.00,,,0.00,TxWx,2013-05-01 17:19:00,
2013-05-01 12:20:00,76.0,12.0,29.81,SE,135,13.0,13.0,95,0.00,,,0.00,TxWx,2013-05-01 17:20:00,
2013-05-01 12:21:00,76.0,74.0,29.81,East,90,6.0,6.0,95,0.00,,,0.00,TxWx,2013-05-01 17:21:00,
2013-05-01 12:23:00,76.0,74.0,29.81,ESE,112,6.0,6.0,95,0.00,,,0.00,TxWx,2013-05-01 17:23:00,
2013-05-01 12:26:00,76.0,74.0,29.81,ESE,112,14.0,14.0,95,0.00,,,0.00,TxWx,2013-05-01 17:26:00,
2013-05-01 12:28:00,76.0,74.0,29.81,ESE,112,14.0,14.0,95,0.00,,,0.00,TxWx,2013-05-01 17:28:00,
2013-05-01 12:29:00,76.0,74.0,29.81,NE,45,9.0,9.0,95,0.00,,,0.00,TxWx,2013-05-01 17:29:00,
2013-05-01 12:31:00,76.0,74.0,29.81,East,90,8.0,8.0,95,0.00,,,0.00,TxWx,2013-05-01 17:31:00,
2013-05-01 12:33:00,76.0,74.0,29.81,ESE,112,10.0,11.0,95,0.00,,,0.00,TxWx,2013-05-01 17:33:00,
2013-05-01 12:34:00,76.0,74.0,29.81,ESE,112,14.0,14.0,94,0.00,,,0.00,TxWx,2013-05-01 17:34:00,
2013-05-01 12:35:00,76.0,74.0,29.81,ESE,112,13.0,13.0,94,0.00,,,0.00,TxWx,2013-05-01 17:35:00,
2013-05-01 12:37:00,76.0,74.0,29.81,ESE,112,13.0,13.0,94,0.00,,,0.00,TxWx,2013-05-01 17:37:00,
2013-05-01 12:39:00,76.0,74.0,29.81,ESE,112,13.0,13.0,94,0.00,,,0.00,TxWx,2013-05-01 17:39:00,
2013-05-01 12:40:00,76.0,74.0,29.81,ESE,112,13.0,13.0,94,0.00,,,0.00,TxWx,2013-05-01 17:40:00,
2013-05-01 12:41:00,76.0,74.0,29.81,SE,135,8.0,8.0,94,0.00,,,0.00,TxWx,2013-05-01 17:41:00,
2013-05-01 12:43:00,76.0,74.0,29.81,SE,135,9.0,10.0,95,0.00,,,0.00,TxWx,2013-05-01 17:43:00,
2013-05-01 12:44:00,76.0,74.0,29.81,SE,135,10.0,10.0,95,0.00,,,0.00,TxWx,2013-05-01 17:44:00,
2013-05-01 12:45:00,76.0,74.0,29.80,ESE,112,10.0,10.0,94,0.00,,,0.00,TxWx,2013-05-01 17:45:00,
2013-05-01 12:47:00,76.0,74.0,29.80,ESE,112,14.0,15.0,94,0.00,,,0.00,TxWx,2013-05-01 17:47:00,
2013-05-01 12:50:00,76.0,74.0,29.80,ESE,112,11.0,12.0,94,0.00,,,0.00,TxWx,2013-05-01 17:50:00,
2013-05-01 12:51:00,76.0,74.0,29.80,SE,135,12.0,12.0,94,0.00,,,0.00,TxWx,2013-05-01 17:51:00,
2013-05-01 12:52:00,76.0,74.0,29.80,ESE,112,10.0,10.0,94,0.00,,,0.00,TxWx,2013-05-01 17:52:00,
2013-05-01 12:54:00,76.0,74.0,29.81,SE,135,10.0,10.0,95,0.00,,,0.00,TxWx,2013-05-01 17:54:00,
2013-05-01 12:56:00,77.0,75.0,29.81,ESE,112,9.0,9.0,95,0.00,,,0.00,TxWx,2013-05-01 17:56:00,
2013-05-01 12:57:00,76.0,74.0,29.81,SE,135,13.0,14.0,94,0.00,,,0.00,TxWx,2013-05-01 17:57:00,
2013-05-01 12:58:00,76.0,74.0,29.81,SE,135,14.0,14.0,94,0.00,,,0.00,TxWx,2013-05-01 17:58:00,
2013-05-01 13:00:00,76.0,74.0,29.81,ESE,112,12.0,12.0,94,0.00,,,0.00,TxWx,2013-05-01 18:00:00,
2013-05-01 13:02:00,77.0,75.0,29.81,ESE,112,11.0,11.0,94,0.00,,,0.00,TxWx,2013-05-01 18:02:00,
2013-05-01 13:03:00,77.0,75.0,29.81,ESE,112,7.0,8.0,94,0.00,,,0.00,TxWx,2013-05-01 18:03:00,
2013-05-01 13:05:00,77.0,75.0,29.81,East,90,9.0,9.0,94,0.00,,,0.00,TxWx,2013-05-01 18:05:00,
2013-05-01 13:06:00,77.0,75.0,29.80,East,90,10.0,10.0,94,0.00,,,0.00,TxWx,2013-05-01 18:06:00,
2013-05-01 13:07:00,77.0,75.0,29.81,ESE,112,8.0,9.0,94,0.00,,,0.00,TxWx,2013-05-01 18:07:00,
2013-05-01 13:08:00,77.0,75.0,29.81,ESE,112,9.0,9.0,94,0.00,,,0.00,TxWx,2013-05-01 18:08:00,
2013-05-01 13:10:00,77.0,75.0,29.80,East,90,10.0,11.0,93,0.00,,,0.00,TxWx,2013-05-01 18:10:00,
2013-05-01 13:11:00,77.0,75.0,29.80,East,90,10.0,11.0,93,0.00,,,0.00,TxWx,2013-05-01 18:11:00,
2013-05-01 13:12:00,77.0,75.0,29.80,SE,135,8.0,8.0,94,0.00,,,0.00,TxWx,2013-05-01 18:12:00,
2013-05-01 13:14:00,77.0,75.0,29.80,East,90,8.0,8.0,94,0.00,,,0.00,TxWx,2013-05-01 18:14:00,
2013-05-01 13:16:00,77.0,75.0,29.80,ESE,112,8.0,8.0,93,0.00,,,0.00,TxWx,2013-05-01 18:16:00,
2013-05-01 13:17:00,76.0,74.0,29.80,ESE,112,11.0,12.0,93,0.00,,,0.00,TxWx,2013-05-01 18:17:00,
2013-05-01 13:19:00,76.0,74.0,29.80,ESE,112,9.0,10.0,93,0.00,,,0.00,TxWx,2013-05-01 18:19:00,
2013-05-01 13:22:00,77.0,75.0,29.80,ESE,112,13.0,13.0,93,0.00,,,0.00,TxWx,2013-05-01 18:22:00,
2013-05-01 13:23:00,77.0,75.0,29.80,ESE,112,6.0,7.0,93,0.00,,,0.00,TxWx,2013-05-01 18:23:00,
2013-05-01 13:25:00,77.0,75.0,29.80,East,90,11.0,12.0,93,0.00,,,0.00,TxWx,2013-05-01 18:25:00,
2013-05-01 13:27:00,77.0,74.0,29.80,East,90,11.0,11.0,92,0.00,,,0.00,TxWx,2013-05-01 18:27:00,
2013-05-01 13:28:00,77.0,74.0,29.80,SE,135,11.0,12.0,92,0.00,,,0.00,TxWx,2013-05-01 18:28:00,
2013-05-01 13:30:00,77.0,75.0,29.80,ESE,112,10.0,10.0,93,0.00,,,0.00,TxWx,2013-05-01 18:30:00,
2013-05-01 13:32:00,76.0,73.0,29.80,East,90,10.0,10.0,92,0.00,,,0.00,TxWx,2013-05-01 18:32:00,
2013-05-01 13:33:00,77.0,74.0,29.80,East,90,7.0,8.0,92,0.00,,,0.00,TxWx,2013-05-01 18:33:00,
2013-05-01 13:35:00,77.0,74.0,29.80,East,90,12.0,12.0,92,0.00,,,0.00,TxWx,2013-05-01 18:35:00,
2013-05-01 13:36:00,77.0,74.0,29.80,SE,135,12.0,12.0,92,0.00,,,0.00,TxWx,2013-05-01 18:36:00,
2013-05-01 13:38:00,77.0,74.0,29.80,SE,135,6.0,7.0,92,0.00,,,0.00,TxWx,2013-05-01 18:38:00,
2013-05-01 13:39:00,76.0,73.0,29.80,ESE,112,11.0,13.0,92,0.00,,,0.00,TxWx,2013-05-01 18:39:00,
2013-05-01 13:41:00,76.0,73.0,29.80,ESE,112,14.0,14.0,92,0.00,,,0.00,TxWx,2013-05-01 18:41:00,
2013-05-01 13:45:00,76.0,74.0,29.79,ESE,112,10.0,11.0,93,0.00,,,0.00,TxWx,2013-05-01 18:45:00,
2013-05-01 13:47:00,77.0,75.0,29.79,ESE,112,8.0,9.0,93,0.00,,,0.00,TxWx,2013-05-01 18:47:00,
2013-05-01 13:49:00,76.0,73.0,29.79,ESE,112,10.0,12.0,92,0.00,,,0.00,TxWx,2013-05-01 18:49:00,
2013-05-01 13:52:00,76.0,73.0,29.79,SE,135,13.0,13.0,92,0.00,,,0.00,TxWx,2013-05-01 18:52:00,
2013-05-01 13:53:00,76.0,73.0,29.79,SE,135,8.0,10.0,92,0.00,,,0.00,TxWx,2013-05-01 18:53:00,
2013-05-01 13:54:00,76.0,73.0,29.79,ESE,112,10.0,11.0,92,0.00,,,0.00,TxWx,2013-05-01 18:54:00,
2013-05-01 13:58:00,76.0,73.0,29.79,ESE,112,11.0,13.0,92,0.00,,,0.00,TxWx,2013-05-01 18:58:00,
2013-05-01 14:00:00,76.0,73.0,29.79,ESE,112,10.0,10.0,92,0.00,,,0.00,TxWx,2013-05-01 19:00:00,
2013-05-01 14:01:00,76.0,73.0,29.79,SE,135,14.0,14.0,92,0.00,,,0.00,TxWx,2013-05-01 19:01:00,
2013-05-01 14:02:00,77.0,74.0,29.79,ESE,112,10.0,10.0,92,0.00,,,0.00,TxWx,2013-05-01 19:02:00,
2013-05-01 14:05:00,77.0,74.0,29.79,ESE,112,13.0,13.0,92,0.00,,,0.00,TxWx,2013-05-01 19:05:00,
2013-05-01 14:06:00,77.0,74.0,29.79,East,90,10.0,12.0,92,0.00,,,0.00,TxWx,2013-05-01 19:06:00,
2013-05-01 14:07:00,77.0,74.0,29.79,ESE,112,11.0,12.0,92,0.00,,,0.00,TxWx,2013-05-01 19:07:00,
2013-05-01 14:11:00,77.0,74.0,29.79,ESE,112,13.0,14.0,92,0.00,,,0.00,TxWx,2013-05-01 19:11:00,
2013-05-01 14:12:00,77.0,74.0,29.79,SE,135,11.0,13.0,92,0.00,,,0.00,TxWx,2013-05-01 19:12:00,
2013-05-01 14:13:00,77.0,74.0,29.80,East,90,14.0,14.0,92,0.00,,,0.00,TxWx,2013-05-01 19:13:00,
2013-05-01 14:15:00,77.0,74.0,29.80,ESE,112,10.0,11.0,92,0.00,,,0.00,TxWx,2013-05-01 19:15:00,
2013-05-01 14:18:00,77.0,74.0,29.79,SE,135,13.0,13.0,91,0.00,,,0.00,TxWx,2013-05-01 19:18:00,
2013-05-01 14:19:00,77.0,74.0,29.79,ESE,112,10.0,10.0,92,0.00,,,0.00,TxWx,2013-05-01 19:19:00,
2013-05-01 14:20:00,77.0,74.0,29.79,ESE,112,10.0,13.0,91,0.00,,,0.00,TxWx,2013-05-01 19:20:00,
2013-05-01 14:23:00,77.0,74.0,29.79,ESE,112,10.0,12.0,91,0.00,,,0.00,TxWx,2013-05-01 19:23:00,
2013-05-01 14:25:00,77.0,74.0,29.79,ESE,112,13.0,13.0,92,0.00,,,0.00,TxWx,2013-05-01 19:25:00,
2013-05-01 14:27:00,77.0,74.0,29.79,ESE,112,13.0,14.0,91,0.00,,,0.00,TxWx,2013-05-01 19:27:00,
2013-05-01 14:28:00,77.0,74.0,29.79,ESE,112,14.0,14.0,92,0.00,,,0.00,TxWx,2013-05-01 19:28:00,
2013-05-01 14:29:00,77.0,74.0,29.79,SE,135,11.0,11.0,92,0.00,,,0.00,TxWx,2013-05-01 19:29:00,
2013-05-01 14:31:00,76.0,73.0,29.79,ESE,112,9.0,10.0,92,0.00,,,0.00,TxWx,2013-05-01 19:31:00,
2013-05-01 14:32:00,77.0,74.0,29.79,ESE,112,13.0,13.0,92,0.00,,,0.00,TxWx,2013-05-01 19:32:00,
2013-05-01 14:33:00,77.0,74.0,29.79,ESE,112,11.0,11.0,92,0.00,,,0.00,TxWx,2013-05-01 19:33:00,
2013-05-01 14:35:00,77.0,74.0,29.79,ESE,112,13.0,13.0,92,0.00,,,0.00,TxWx,2013-05-01 19:35:00,
2013-05-01 14:36:00,77.0,74.0,29.79,ESE,112,10.0,11.0,92,0.00,,,0.00,TxWx,2013-05-01 19:36:00,
2013-05-01 14:38:00,77.0,74.0,29.79,SE,135,13.0,16.0,92,0.00,,,0.00,TxWx,2013-05-01 19:38:00,
2013-05-01 14:39:00,77.0,74.0,29.79,East,90,13.0,13.0,92,0.00,,,0.00,TxWx,2013-05-01 19:39:00,
2013-05-01 14:41:00,77.0,74.0,29.79,ESE,112,12.0,12.0,92,0.00,,,0.00,TxWx,2013-05-01 19:41:00,
2013-05-01 14:43:00,77.0,74.0,29.79,East,90,7.0,8.0,92,0.00,,,0.00,TxWx,2013-05-01 19:43:00,
2013-05-01 14:45:00,77.0,74.0,29.79,SE,135,12.0,12.0,92,0.00,,,0.00,TxWx,2013-05-01 19:45:00,
2013-05-01 14:47:00,77.0,74.0,29.79,East,90,9.0,9.0,92,0.00,,,0.00,TxWx,2013-05-01 19:47:00,
2013-05-01 14:49:00,77.0,74.0,29.79,East,90,6.0,7.0,91,0.00,,,0.00,TxWx,2013-05-01 19:49:00,
2013-05-01 14:50:00,77.0,74.0,29.79,ESE,112,11.0,12.0,91,0.00,,,0.00,TxWx,2013-05-01 19:50:00,
2013-05-01 14:51:00,77.0,74.0,29.79,ESE,112,12.0,13.0,91,0.00,,,0.00,TxWx,2013-05-01 19:51:00,
2013-05-01 14:54:00,77.0,74.0,29.79,East,90,8.0,9.0,91,0.00,,,0.00,TxWx,2013-05-01 19:54:00,
2013-05-01 14:55:00,77.0,74.0,29.79,ENE,67,11.0,11.0,91,0.00,,,0.00,TxWx,2013-05-01 19:55:00,
2013-05-01 14:56:00,77.0,74.0,29.79,ESE,112,12.0,13.0,91,0.00,,,0.00,TxWx,2013-05-01 19:56:00,
2013-05-01 14:57:00,77.0,74.0,29.79,SE,135,8.0,8.0,91,0.00,,,0.00,TxWx,2013-05-01 19:57:00,
2013-05-01 15:00:00,77.0,74.0,29.79,SE,135,10.0,10.0,92,0.00,,,0.00,TxWx,2013-05-01 20:00:00,
2013-05-01 15:02:00,78.0,75.0,29.79,ESE,112,6.0,7.0,92,0.00,,,0.00,TxWx,2013-05-01 20:02:00,
2013-05-01 15:06:00,76.0,73.0,29.79,ESE,112,13.0,14.0,91,0.00,,,0.00,TxWx,2013-05-01 20:06:00,
2013-05-01 15:08:00,77.0,74.0,29.79,ESE,112,9.0,10.0,92,0.00,,,0.00,TxWx,2013-05-01 20:08:00,
2013-05-01 15:09:00,77.0,74.0,29.79,ENE,67,10.0,10.0,91,0.00,,,0.00,TxWx,2013-05-01 20:09:00,
2013-05-01 15:10:00,77.0,74.0,29.79,East,90,9.0,9.0,92,0.00,,,0.00,TxWx,2013-05-01 20:10:00,
2013-05-01 15:12:00,77.0,74.0,29.79,East,90,13.0,14.0,92,0.00,,,0.00,TxWx,2013-05-01 20:12:00,
2013-05-01 15:13:00,76.0,73.0,29.79,ESE,112,12.0,13.0,91,0.00,,,0.00,TxWx,2013-05-01 20:13:00,
2013-05-01 15:14:00,77.0,74.0,29.79,East,90,7.0,8.0,92,0.00,,,0.00,TxWx,2013-05-01 20:14:00,
2013-05-01 15:15:00,77.0,74.0,29.79,ESE,112,8.0,8.0,92,0.00,,,0.00,TxWx,2013-05-01 20:15:00,
2013-05-01 15:16:00,77.0,74.0,29.79,East,90,8.0,8.0,92,0.00,,,0.00,TxWx,2013-05-01 20:16:00,
2013-05-01 15:18:00,77.0,74.0,29.79,SE,135,10.0,10.0,91,0.00,,,0.00,TxWx,2013-05-01 20:18:00,
2013-05-01 15:19:00,76.0,73.0,29.79,ESE,112,13.0,13.0,91,0.00,,,0.00,TxWx,2013-05-01 20:19:00,
2013-05-01 15:21:00,77.0,74.0,29.79,ESE,112,10.0,10.0,92,0.00,,,0.00,TxWx,2013-05-01 20:21:00,
2013-05-01 15:24:00,77.0,74.0,29.79,SE,135,6.0,6.0,92,0.00,,,0.00,TxWx,2013-05-01 20:24:00,
2013-05-01 15:25:00,77.0,74.0,29.79,ESE,112,6.0,6.0,92,0.00,,,0.00,TxWx,2013-05-01 20:25:00,
2013-05-01 15:26:00,77.0,74.0,29.79,ESE,112,10.0,11.0,91,0.00,,,0.00,TxWx,2013-05-01 20:26:00,
2013-05-01 15:28:00,77.0,74.0,29.79,ESE,112,13.0,13.0,91,0.00,,,0.00,TxWx,2013-05-01 20:28:00,
2013-05-01 15:31:00,77.0,74.0,29.79,East,90,11.0,13.0,91,0.00,,,0.00,TxWx,2013-05-01 20:31:00,
2013-05-01 15:32:00,77.0,74.0,29.79,ESE,112,7.0,8.0,91,0.00,,,0.00,TxWx,2013-05-01 20:32:00,
2013-05-01 15:34:00,77.0,74.0,29.78,East,90,8.0,8.0,91,0.00,,,0.00,TxWx,2013-05-01 20:34:00,
2013-05-01 15:36:00,77.0,74.0,29.79,East,90,8.0,10.0,91,0.00,,,0.00,TxWx,2013-05-01 20:36:00,
2013-05-01 15:38:00,77.0,74.0,29.79,East,90,8.0,9.0,91,0.00,,,0.00,TxWx,2013-05-01 20:38:00,
2013-05-01 15:39:00,77.0,74.0,29.78,SE,135,10.0,11.0,91,0.00,,,0.00,TxWx,2013-05-01 20:39:00,
2013-05-01 15:40:00,77.0,74.0,29.78,ESE,112,9.0,11.0,91,0.00,,,0.00,TxWx,2013-05-01 20:40:00,
2013-05-01 15:42:00,77.0,74.0,29.78,ESE,112,8.0,9.0,92,0.00,,,0.00,TxWx,2013-05-01 20:42:00,
2013-05-01 15:44:00,77.0,74.0,29.79,ESE,112,13.0,14.0,91,0.00,,,0.00,TxWx,2013-05-01 20:44:00,
2013-05-01 15:45:00,77.0,74.0,29.78,ESE,112,11.0,13.0,91,0.00,,,0.00,TxWx,2013-05-01 20:45:00,
2013-05-01 15:46:00,77.0,74.0,29.79,East,90,12.0,12.0,91,0.00,,,0.00,TxWx,2013-05-01 20:46:00,
2013-05-01 15:47:00,77.0,74.0,29.79,ESE,112,10.0,10.0,91,0.00,,,0.00,TxWx,2013-05-01 20:47:00,
2013-05-01 15:49:00,76.0,73.0,29.78,ESE,112,12.0,12.0,91,0.00,,,0.00,TxWx,2013-05-01 20:49:00,
2013-05-01 15:50:00,77.0,74.0,29.79,ESE,112,13.0,13.0,91,0.00,,,0.00,TxWx,2013-05-01 20:50:00,
2013-05-01 15:51:00,77.0,74.0,29.78,ESE,112,14.0,14.0,91,0.00,,,0.00,TxWx,2013-05-01 20:51:00,
2013-05-01 15:53:00,77.0,74.0,29.78,East,90,11.0,11.0,91,0.00,,,0.00,TxWx,2013-05-01 20:53:00,
2013-05-01 15:54:00,77.0,74.0,29.79,ESE,112,10.0,11.0,91,0.00,,,0.00,TxWx,2013-05-01 20:54:00,
2013-05-01 15:55:00,77.0,74.0,29.78,SE,135,11.0,12.0,91,0.00,,,0.00,TxWx,2013-05-01 20:55:00,
2013-05-01 15:56:00,77.0,74.0,29.78,ESE,112,15.0,16.0,91,0.00,,,0.00,TxWx,2013-05-01 20:56:00,
2013-05-01 15:57:00,77.0,74.0,29.78,ESE,112,10.0,10.0,92,0.00,,,0.00,TxWx,2013-05-01 20:57:00,
2013-05-01 15:58:00,77.0,74.0,29.78,ENE,67,11.0,11.0,91,0.00,,,0.00,TxWx,2013-05-01 20:58:00,
2013-05-01 15:59:00,77.0,74.0,29.78,East,90,11.0,12.0,91,0.00,,,0.00,TxWx,2013-05-01 20:59:00,
2013-05-01 16:00:00,77.0,74.0,29.79,East,90,12.0,12.0,91,0.00,,,0.00,TxWx,2013-05-01 21:00:00,
2013-05-01 16:02:00,77.0,74.0,29.78,SE,135,11.0,11.0,91,0.00,,,0.00,TxWx,2013-05-01 21:02:00,
2013-05-01 16:06:00,77.0,74.0,29.78,East,90,6.0,8.0,92,0.00,,,0.00,TxWx,2013-05-01 21:06:00,
2013-05-01 16:07:00,77.0,74.0,29.78,ESE,112,11.0,11.0,92,0.00,,,0.00,TxWx,2013-05-01 21:07:00,
2013-05-01 16:09:00,77.0,74.0,29.78,SE,135,10.0,11.0,92,0.00,,,0.00,TxWx,2013-05-01 21:09:00,
2013-05-01 16:10:00,77.0,74.0,29.78,SE,135,10.0,12.0,92,0.00,,,0.00,TxWx,2013-05-01 21:10:00,
2013-05-01 16:11:00,77.0,74.0,29.78,SE,135,11.0,12.0,92,0.00,,,0.00,TxWx,2013-05-01 21:11:00,
2013-05-01 16:12:00,76.0,73.0,29.78,ESE,112,13.0,13.0,91,0.00,,,0.00,TxWx,2013-05-01 21:12:00,
2013-05-01 16:13:00,76.0,73.0,29.78,ESE,112,14.0,14.0,91,0.00,,,0.00,TxWx,2013-05-01 21:13:00,
2013-05-01 16:15:00,77.0,74.0,29.78,ESE,112,12.0,13.0,92,0.00,,,0.00,TxWx,2013-05-01 21:15:00,
2013-05-01 16:16:00,77.0,74.0,29.78,ESE,112,8.0,8.0,92,0.00,,,0.00,TxWx,2013-05-01 21:16:00,
2013-05-01 16:19:00,76.0,73.0,29.78,ESE,112,13.0,14.0,91,0.00,,,0.00,TxWx,2013-05-01 21:19:00,
2013-05-01 16:20:00,76.0,73.0,29.78,ESE,112,14.0,14.0,91,0.00,,,0.00,TxWx,2013-05-01 21:20:00,
2013-05-01 16:21:00,76.0,73.0,29.78,ESE,112,13.0,14.0,91,0.00,,,0.00,TxWx,2013-05-01 21:21:00,
2013-05-01 16:22:00,77.0,74.0,29.78,ENE,67,10.0,10.0,92,0.00,,,0.00,TxWx,2013-05-01 21:22:00,
2013-05-01 16:24:00,77.0,74.0,29.78,SE,135,13.0,13.0,92,0.00,,,0.00,TxWx,2013-05-01 21:24:00,
2013-05-01 16:26:00,76.0,73.0,29.78,ESE,112,13.0,13.0,91,0.00,,,0.00,TxWx,2013-05-01 21:26:00,
2013-05-01 16:28:00,76.0,73.0,29.78,ESE,112,11.0,13.0,91,0.00,,,0.00,TxWx,2013-05-01 21:28:00,
2013-05-01 16:30:00,77.0,74.0,29.78,East,90,12.0,13.0,92,0.00,,,0.00,TxWx,2013-05-01 21:30:00,
2013-05-01 16:32:00,76.0,73.0,29.78,ESE,112,10.0,12.0,92,0.00,,,0.00,TxWx,2013-05-01 21:32:00,
2013-05-01 16:33:00,77.0,74.0,29.78,SE,135,6.0,7.0,92,0.00,,,0.00,TxWx,2013-05-01 21:33:00,
2013-05-01 16:35:00,76.0,73.0,29.78,ESE,112,10.0,10.0,92,0.00,,,0.00,TxWx,2013-05-01 21:35:00,
2013-05-01 16:36:00,77.0,74.0,29.78,ESE,112,8.0,9.0,92,0.00,,,0.00,TxWx,2013-05-01 21:36:00,
2013-05-01 16:39:00,77.0,74.0,29.78,East,90,6.0,6.0,92,0.00,,,0.00,TxWx,2013-05-01 21:39:00,
2013-05-01 16:41:00,76.0,73.0,29.78,East,90,11.0,12.0,92,0.00,,,0.00,TxWx,2013-05-01 21:41:00,
2013-05-01 16:43:00,77.0,74.0,29.78,East,90,8.0,8.0,92,0.00,,,0.00,TxWx,2013-05-01 21:43:00,
2013-05-01 16:44:00,76.0,73.0,29.78,ESE,112,11.0,12.0,91,0.00,,,0.00,TxWx,2013-05-01 21:44:00,
2013-05-01 16:46:00,77.0,74.0,29.77,SE,135,11.0,11.0,92,0.00,,,0.00,TxWx,2013-05-01 21:46:00,
2013-05-01 16:49:00,76.0,73.0,29.78,SE,135,8.0,9.0,92,0.00,,,0.00,TxWx,2013-05-01 21:49:00,
2013-05-01 16:50:00,76.0,73.0,29.78,SE,135,9.0,9.0,91,0.00,,,0.00,TxWx,2013-05-01 21:50:00,
2013-05-01 16:51:00,76.0,73.0,29.78,ESE,112,10.0,11.0,91,0.00,,,0.00,TxWx,2013-05-01 21:51:00,
2013-05-01 16:55:00,76.0,73.0,29.78,ESE,112,11.0,13.0,91,0.00,,,0.00,TxWx,2013-05-01 21:55:00,
2013-05-01 16:57:00,76.0,73.0,29.78,ESE,112,10.0,10.0,91,0.00,,,0.00,TxWx,2013-05-01 21:57:00,
2013-05-01 16:59:00,77.0,74.0,29.78,ESE,112,6.0,6.0,91,0.00,,,0.00,TxWx,2013-05-01 21:59:00,
2013-05-01 17:00:00,77.0,74.0,29.78,SE,135,9.0,11.0,91,0.00,,,0.00,TxWx,2013-05-01 22:00:00,
2013-05-01 17:01:00,77.0,73.0,29.78,SE,135,10.0,11.0,91,0.00,,,0.00,TxWx,2013-05-01 22:01:00,
2013-05-01 17:03:00,77.0,74.0,29.78,ESE,112,12.0,12.0,91,0.00,,,0.00,TxWx,2013-05-01 22:03:00,
2013-05-01 17:06:00,76.0,73.0,29.78,SE,135,11.0,11.0,90,0.00,,,0.00,TxWx,2013-05-01 22:06:00,
2013-05-01 17:07:00,76.0,73.0,29.78,ESE,112,12.0,14.0,90,0.00,,,0.00,TxWx,2013-05-01 22:07:00,
2013-05-01 17:10:00,76.0,73.0,29.78,SE,135,10.0,11.0,91,0.00,,,0.00,TxWx,2013-05-01 22:10:00,
2013-05-01 17:12:00,76.0,73.0,29.78,East,90,11.0,13.0,90,0.00,,,0.00,TxWx,2013-05-01 22:12:00,
2013-05-01 17:13:00,76.0,73.0,29.78,ESE,112,11.0,11.0,91,0.00,,,0.00,TxWx,2013-05-01 22:13:00,
2013-05-01 17:15:00,77.0,74.0,29.78,East,90,10.0,10.0,91,0.00,,,0.00,TxWx,2013-05-01 22:15:00,
2013-05-01 17:16:00,77.0,74.0,29.78,ESE,112,10.0,11.0,91,0.00,,,0.00,TxWx,2013-05-01 22:16:00,
2013-05-01 17:17:00,77.0,74.0,29.78,East,90,8.0,10.0,91,0.00,,,0.00,TxWx,2013-05-01 22:17:00,
2013-05-01 17:18:00,77.0,74.0,29.78,East,90,5.0,5.0,91,0.00,,,0.00,TxWx,2013-05-01 22:18:00,
2013-05-01 17:19:00,77.0,74.0,29.78,East,90,7.0,8.0,91,0.00,,,0.00,TxWx,2013-05-01 22:19:00,
2013-05-01 17:22:00,77.0,74.0,29.78,ESE,112,8.0,9.0,91,0.00,,,0.00,TxWx,2013-05-01 22:22:00,
2013-05-01 17:23:00,77.0,74.0,29.78,SE,135,9.0,9.0,91,0.00,,,0.00,TxWx,2013-05-01 22:23:00,
2013-05-01 17:26:00,77.0,74.0,29.78,East,90,8.0,9.0,92,0.00,,,0.00,TxWx,2013-05-01 22:26:00,
2013-05-01 17:27:00,77.0,74.0,29.78,SE,135,8.0,8.0,92,0.00,,,0.00,TxWx,2013-05-01 22:27:00,
2013-05-01 17:28:00,76.0,73.0,29.78,ESE,112,11.0,11.0,92,0.00,,,0.00,TxWx,2013-05-01 22:28:00,
2013-05-01 17:30:00,77.0,74.0,29.78,East,90,6.0,7.0,92,0.00,,,0.00,TxWx,2013-05-01 22:30:00,
2013-05-01 17:31:00,76.0,73.0,29.78,ESE,112,12.0,13.0,92,0.00,,,0.00,TxWx,2013-05-01 22:31:00,
2013-05-01 17:34:00,76.0,73.0,29.78,ESE,112,10.0,10.0,92,0.00,,,0.00,TxWx,2013-05-01 22:34:00,
2013-05-01 17:35:00,76.0,73.0,29.78,SE,135,9.0,10.0,92,0.00,,,0.00,TxWx,2013-05-01 22:35:00,
2013-05-01 17:36:00,76.0,73.0,29.78,ESE,112,6.0,7.0,92,0.00,,,0.00,TxWx,2013-05-01 22:36:00,
2013-05-01 17:38:00,76.0,73.0,29.78,ESE,112,10.0,12.0,92,0.00,,,0.00,TxWx,2013-05-01 22:38:00,
2013-05-01 17:39:00,76.0,73.0,29.78,East,90,10.0,10.0,92,0.00,,,0.00,TxWx,2013-05-01 22:39:00,
2013-05-01 17:40:00,76.0,73.0,29.79,East,90,10.0,10.0,92,0.00,,,0.00,TxWx,2013-05-01 22:40:00,
2013-05-01 17:44:00,76.0,74.0,29.79,East,90,10.0,11.0,93,0.00,,,0.00,TxWx,2013-05-01 22:44:00,
2013-05-01 17:45:00,76.0,74.0,29.79,ESE,112,12.0,12.0,93,0.00,,,0.00,TxWx,2013-05-01 22:45:00,
2013-05-01 17:46:00,76.0,74.0,29.79,ESE,112,11.0,11.0,93,0.00,,,0.00,TxWx,2013-05-01 22:46:00,
2013-05-01 17:49:00,76.0,74.0,29.79,East,90,8.0,9.0,93,0.00,,,0.00,TxWx,2013-05-01 22:49:00,
2013-05-01 17:51:00,76.0,74.0,29.79,East,90,10.0,12.0,93,0.00,,,0.00,TxWx,2013-05-01 22:51:00,
2013-05-01 17:52:00,76.0,74.0,29.79,SE,135,10.0,11.0,94,0.00,,,0.00,TxWx,2013-05-01 22:52:00,
2013-05-01 17:53:00,76.0,74.0,29.79,East,90,7.0,9.0,93,0.00,,,0.00,TxWx,2013-05-01 22:53:00,
2013-05-01 17:56:00,76.0,74.0,29.79,ESE,112,11.0,11.0,93,0.00,,,0.00,TxWx,2013-05-01 22:56:00,
2013-05-01 17:58:00,76.0,74.0,29.79,ESE,112,11.0,11.0,93,0.00,,,0.00,TxWx,2013-05-01 22:58:00,
2013-05-01 17:59:00,76.0,74.0,29.79,ESE,112,10.0,11.0,93,0.00,,,0.00,TxWx,2013-05-01 22:59:00,
2013-05-01 18:00:00,76.0,74.0,29.79,ESE,112,13.0,13.0,93,0.00,,,0.00,TxWx,2013-05-01 23:00:00,
2013-05-01 18:04:00,76.0,74.0,29.79,SE,135,10.0,10.0,93,0.00,,,0.00,TxWx,2013-05-01 23:04:00,
2013-05-01 18:06:00,76.0,74.0,29.79,East,90,8.0,8.0,93,0.00,,,0.00,TxWx,2013-05-01 23:06:00,
2013-05-01 18:07:00,76.0,74.0,29.79,ESE,112,11.0,11.0,93,0.00,,,0.00,TxWx,2013-05-01 23:07:00,
2013-05-01 18:09:00,76.0,74.0,29.79,ESE,112,9.0,10.0,93,0.00,,,0.00,TxWx,2013-05-01 23:09:00,
2013-05-01 18:12:00,76.0,74.0,29.79,ESE,112,8.0,8.0,93,0.00,,,0.00,TxWx,2013-05-01 23:12:00,
2013-05-01 18:13:00,76.0,74.0,29.79,ESE,112,9.0,9.0,93,0.00,,,0.00,TxWx,2013-05-01 23:13:00,
2013-05-01 18:14:00,76.0,74.0,29.79,SSE,157,6.0,6.0,93,0.00,,,0.00,TxWx,2013-05-01 23:14:00,
2013-05-01 18:16:00,76.0,74.0,29.79,ESE,112,11.0,11.0,93,0.00,,,0.00,TxWx,2013-05-01 23:16:00,
2013-05-01 18:18:00,76.0,74.0,29.79,SE,135,10.0,11.0,93,0.00,,,0.00,TxWx,2013-05-01 23:18:00,
2013-05-01 18:19:00,76.0,74.0,29.79,ESE,112,10.0,10.0,93,0.00,,,0.00,TxWx,2013-05-01 23:19:00,
2013-05-01 18:21:00,76.0,74.0,29.79,East,90,6.0,6.0,93,0.00,,,0.00,TxWx,2013-05-01 23:21:00,
2013-05-01 18:22:00,76.0,74.0,29.79,East,90,7.0,7.0,94,0.00,,,0.00,TxWx,2013-05-01 23:22:00,
2013-05-01 18:24:00,76.0,74.0,29.79,East,90,10.0,11.0,93,0.00,,,0.00,TxWx,2013-05-01 23:24:00,
2013-05-01 18:25:00,76.0,74.0,29.79,SE,135,10.0,10.0,93,0.00,,,0.00,TxWx,2013-05-01 23:25:00,
2013-05-01 18:26:00,76.0,74.0,29.79,East,90,5.0,7.0,94,0.00,,,0.00,TxWx,2013-05-01 23:26:00,
2013-05-01 18:29:00,76.0,74.0,29.79,East,90,6.0,7.0,94,0.00,,,0.00,TxWx,2013-05-01 23:29:00,
2013-05-01 18:30:00,76.0,74.0,29.79,ESE,112,8.0,8.0,94,0.00,,,0.00,TxWx,2013-05-01 23:30:00,
2013-05-01 18:31:00,76.0,74.0,29.79,East,90,10.0,10.0,94,0.00,,,0.00,TxWx,2013-05-01 23:31:00,
2013-05-01 18:32:00,76.0,74.0,29.79,ESE,112,8.0,8.0,94,0.00,,,0.00,TxWx,2013-05-01 23:32:00,
2013-05-01 18:35:00,76.0,74.0,29.79,SE,135,9.0,9.0,94,0.00,,,0.00,TxWx,2013-05-01 23:35:00,
2013-05-01 18:36:00,76.0,74.0,29.79,East,90,7.0,8.0,94,0.00,,,0.00,TxWx,2013-05-01 23:36:00,
2013-05-01 18:38:00,76.0,74.0,29.79,East,90,6.0,7.0,94,0.00,,,0.00,TxWx,2013-05-01 23:38:00,
2013-05-01 18:42:00,75.0,73.0,29.79,SE,135,11.0,13.0,94,0.00,,,0.00,TxWx,2013-05-01 23:42:00,
2013-05-01 18:44:00,75.0,73.0,29.78,ESE,112,10.0,10.0,95,0.00,,,0.00,TxWx,2013-05-01 23:44:00,
2013-05-01 18:47:00,75.0,73.0,29.79,East,90,9.0,11.0,94,0.00,,,0.00,TxWx,2013-05-01 23:47:00,
2013-05-01 18:49:00,75.0,73.0,29.79,ESE,112,9.0,10.0,95,0.00,,,0.00,TxWx,2013-05-01 23:49:00,
2013-05-01 18:50:00,75.0,73.0,29.79,ESE,112,7.0,9.0,95,0.00,,,0.00,TxWx,2013-05-01 23:50:00,
2013-05-01 18:51:00,75.0,73.0,29.79,SE,135,11.0,12.0,95,0.00,,,0.00,TxWx,2013-05-01 23:51:00,
2013-05-01 18:53:00,75.0,73.0,29.79,ESE,112,8.0,8.0,95,0.00,,,0.00,TxWx,2013-05-01 23:53:00,
2013-05-01 18:54:00,75.0,73.0,29.79,ESE,112,6.0,6.0,95,0.00,,,0.00,TxWx,2013-05-01 23:54:00,
2013-05-01 18:56:00,75.0,73.0,29.79,ESE,112,9.0,9.0,95,0.00,,,0.00,TxWx,2013-05-01 23:56:00,
2013-05-01 18:57:00,75.0,73.0,29.79,SE,135,10.0,11.0,95,0.00,,,0.00,TxWx,2013-05-01 23:57:00,
2013-05-01 18:59:00,75.0,73.0,29.79,SE,135,11.0,12.0,95,0.00,,,0.00,TxWx,2013-05-01 23:59:00,
2013-05-01 19:00:00,75.0,73.0,29.79,East,90,10.0,10.0,95,0.00,,,0.00,TxWx,2013-05-02 00:00:00,
2013-05-01 19:01:00,75.0,73.0,29.79,ESE,112,11.0,11.0,95,0.00,,,0.00,TxWx,2013-05-02 00:01:00,
2013-05-01 19:03:00,75.0,73.0,29.79,ESE,112,9.0,10.0,95,0.00,,,0.00,TxWx,2013-05-02 00:03:00,
2013-05-01 19:04:00,75.0,73.0,29.79,SE,135,9.0,10.0,95,0.00,,,0.00,TxWx,2013-05-02 00:04:00,
2013-05-01 19:06:00,75.0,74.0,29.79,ESE,112,10.0,10.0,96,0.00,,,0.00,TxWx,2013-05-02 00:06:00,
2013-05-01 19:07:00,75.0,74.0,29.79,ESE,112,8.0,8.0,96,0.00,,,0.00,TxWx,2013-05-02 00:07:00,
2013-05-01 19:09:00,75.0,74.0,29.79,SE,135,7.0,10.0,96,0.00,,,0.00,TxWx,2013-05-02 00:09:00,
2013-05-01 19:11:00,75.0,74.0,29.79,East,90,8.0,11.0,96,0.00,,,0.00,TxWx,2013-05-02 00:11:00,
2013-05-01 19:12:00,75.0,74.0,29.79,SE,135,11.0,11.0,96,0.00,,,0.00,TxWx,2013-05-02 00:12:00,
2013-05-01 19:13:00,75.0,74.0,29.79,ESE,112,10.0,11.0,96,0.00,,,0.00,TxWx,2013-05-02 00:13:00,
2013-05-01 19:14:00,75.0,74.0,29.79,SE,135,10.0,10.0,96,0.00,,,0.00,TxWx,2013-05-02 00:14:00,
2013-05-01 19:15:00,75.0,74.0,29.79,ESE,112,11.0,11.0,96,0.00,,,0.00,TxWx,2013-05-02 00:15:00,
2013-05-01 19:18:00,75.0,74.0,29.79,SE,135,10.0,10.0,96,0.00,,,0.00,TxWx,2013-05-02 00:18:00,
2013-05-01 19:19:00,75.0,74.0,29.79,ESE,112,10.0,11.0,96,0.00,,,0.00,TxWx,2013-05-02 00:19:00,
2013-05-01 19:20:00,75.0,74.0,29.79,ESE,112,10.0,11.0,96,0.00,,,0.00,TxWx,2013-05-02 00:20:00,
2013-05-01 19:21:00,75.0,74.0,29.79,ESE,112,11.0,12.0,96,0.00,,,0.00,TxWx,2013-05-02 00:21:00,
2013-05-01 19:22:00,75.0,74.0,29.79,ESE,112,6.0,6.0,96,0.00,,,0.00,TxWx,2013-05-02 00:22:00,
2013-05-01 19:24:00,75.0,74.0,29.79,ESE,112,10.0,10.0,96,0.00,,,0.00,TxWx,2013-05-02 00:24:00,
2013-05-01 19:25:00,75.0,74.0,29.79,SE,135,13.0,13.0,96,0.00,,,0.00,TxWx,2013-05-02 00:25:00,
2013-05-01 19:27:00,75.0,74.0,29.79,East,90,10.0,10.0,96,0.00,,,0.00,TxWx,2013-05-02 00:27:00,
2013-05-01 19:28:00,75.0,74.0,29.79,ESE,112,11.0,11.0,96,0.00,,,0.00,TxWx,2013-05-02 00:28:00,
2013-05-01 19:30:00,75.0,74.0,29.79,SE,135,10.0,10.0,96,0.00,,,0.00,TxWx,2013-05-02 00:30:00,
2013-05-01 19:32:00,75.0,74.0,29.79,ESE,112,11.0,13.0,96,0.00,,,0.00,TxWx,2013-05-02 00:32:00,
2013-05-01 19:34:00,75.0,74.0,29.79,ESE,112,11.0,11.0,96,0.00,,,0.00,TxWx,2013-05-02 00:34:00,
2013-05-01 19:35:00,75.0,74.0,29.79,ESE,112,10.0,10.0,96,0.00,,,0.00,TxWx,2013-05-02 00:35:00,
2013-05-01 19:37:00,75.0,74.0,29.79,East,90,13.0,13.0,96,0.00,,,0.00,TxWx,2013-05-02 00:37:00,
2013-05-01 19:38:00,75.0,74.0,29.79,ESE,112,11.0,11.0,96,0.00,,,0.00,TxWx,2013-05-02 00:38:00,
2013-05-01 19:40:00,75.0,74.0,29.79,SE,135,11.0,12.0,96,0.00,,,0.00,TxWx,2013-05-02 00:40:00,
2013-05-01 19:43:00,75.0,74.0,29.79,SE,135,10.0,10.0,96,0.00,,,0.00,TxWx,2013-05-02 00:43:00,
2013-05-01 19:44:00,75.0,74.0,29.79,ESE,112,12.0,12.0,96,0.00,,,0.00,TxWx,2013-05-02 00:44:00,
2013-05-01 19:45:00,75.0,74.0,29.79,SE,135,13.0,14.0,96,0.00,,,0.00,TxWx,2013-05-02 00:45:00,
2013-05-01 19:46:00,75.0,74.0,29.79,SE,135,8.0,8.0,96,0.00,,,0.00,TxWx,2013-05-02 00:46:00,
2013-05-01 19:49:00,75.0,74.0,29.79,SE,135,10.0,10.0,96,0.00,,,0.00,TxWx,2013-05-02 00:49:00,
2013-05-01 19:50:00,75.0,74.0,29.79,SE,135,8.0,10.0,96,0.00,,,0.00,TxWx,2013-05-02 00:50:00,
2013-05-01 19:51:00,75.0,74.0,29.79,ESE,112,9.0,10.0,96,0.00,,,0.00,TxWx,2013-05-02 00:51:00,
2013-05-01 19:53:00,75.0,74.0,29.80,ESE,112,8.0,8.0,96,0.00,,,0.00,TxWx,2013-05-02 00:53:00,
2013-05-01 19:54:00,75.0,74.0,29.79,SE,135,10.0,10.0,96,0.00,,,0.00,TxWx,2013-05-02 00:54:00,
2013-05-01 19:56:00,75.0,74.0,29.80,SE,135,7.0,9.0,96,0.00,,,0.00,TxWx,2013-05-02 00:56:00,
2013-05-01 19:57:00,75.0,74.0,29.80,ESE,112,11.0,11.0,96,0.00,,,0.00,TxWx,2013-05-02 00:57:00,
2013-05-01 19:59:00,75.0,74.0,29.80,East,90,9.0,9.0,96,0.00,,,0.00,TxWx,2013-05-02 00:59:00,
2013-05-01 20:00:00,75.0,74.0,29.80,ESE,112,11.0,11.0,96,0.00,,,0.00,TxWx,2013-05-02 01:00:00,
2013-05-01 20:02:00,74.0,73.0,29.80,East,90,9.0,12.0,96,0.00,,,0.00,TxWx,2013-05-02 01:02:00,
2013-05-01 20:03:00,74.0,73.0,29.80,ESE,112,12.0,13.0,96,0.00,,,0.00,TxWx,2013-05-02 01:03:00,
2013-05-01 20:04:00,74.0,73.0,29.80,SE,135,11.0,12.0,96,0.00,,,0.00,TxWx,2013-05-02 01:04:00,
2013-05-01 20:05:00,74.0,73.0,29.80,ESE,112,14.0,15.0,96,0.00,,,0.00,TxWx,2013-05-02 01:05:00,
2013-05-01 20:06:00,74.0,73.0,29.80,ESE,112,13.0,13.0,96,0.00,,,0.00,TxWx,2013-05-02 01:06:00,
2013-05-01 20:08:00,75.0,74.0,29.80,SSE,157,7.0,8.0,97,0.00,,,0.00,TxWx,2013-05-02 01:08:00,
2013-05-01 20:09:00,74.0,73.0,29.80,SE,135,13.0,13.0,97,0.00,,,0.00,TxWx,2013-05-02 01:09:00,
2013-05-01 20:10:00,75.0,74.0,29.81,SE,135,8.0,10.0,97,0.00,,,0.00,TxWx,2013-05-02 01:10:00,
2013-05-01 20:12:00,74.0,73.0,29.81,SE,135,10.0,11.0,97,0.00,,,0.00,TxWx,2013-05-02 01:12:00,
2013-05-01 20:13:00,75.0,74.0,29.81,SE,135,8.0,8.0,97,0.00,,,0.00,TxWx,2013-05-02 01:13:00,
2013-05-01 20:14:00,75.0,74.0,29.81,ESE,112,13.0,13.0,97,0.00,,,0.00,TxWx,2013-05-02 01:14:00,
2013-05-01 20:16:00,74.0,73.0,29.80,ESE,112,13.0,14.0,97,0.00,,,0.00,TxWx,2013-05-02 01:16:00,
2013-05-01 20:18:00,74.0,73.0,29.81,SE,135,11.0,11.0,97,0.00,,,0.00,TxWx,2013-05-02 01:18:00,
2013-05-01 20:19:00,74.0,73.0,29.80,ESE,112,6.0,7.0,97,0.00,,,0.00,TxWx,2013-05-02 01:19:00,
2013-05-01 20:22:00,74.0,73.0,29.81,SE,135,12.0,14.0,97,0.00,,,0.00,TxWx,2013-05-02 01:22:00,
2013-05-01 20:23:00,74.0,73.0,29.81,SE,135,10.0,10.0,97,0.00,,,0.00,TxWx,2013-05-02 01:23:00,
2013-05-01 20:24:00,74.0,73.0,29.80,SE,135,11.0,11.0,97,0.00,,,0.00,TxWx,2013-05-02 01:24:00,
2013-05-01 20:28:00,74.0,73.0,29.80,SE,135,11.0,11.0,97,0.00,,,0.00,TxWx,2013-05-02 01:28:00,
2013-05-01 20:30:00,74.0,73.0,29.80,ESE,112,13.0,13.0,97,0.00,,,0.00,TxWx,2013-05-02 01:30:00,
2013-05-01 20:31:00,74.0,73.0,29.80,ESE,112,9.0,10.0,97,0.00,,,0.00,TxWx,2013-05-02 01:31:00,
2013-05-01 20:33:00,74.0,73.0,29.81,ESE,112,8.0,10.0,97,0.00,,,0.00,TxWx,2013-05-02 01:33:00,
2013-05-01 20:36:00,74.0,73.0,29.81,SE,135,14.0,14.0,97,0.00,,,0.00,TxWx,2013-05-02 01:36:00,
2013-05-01 20:38:00,74.0,73.0,29.81,SE,135,11.0,11.0,97,0.00,,,0.00,TxWx,2013-05-02 01:38:00,
2013-05-01 20:39:00,74.0,73.0,29.80,ESE,112,10.0,11.0,97,0.00,,,0.00,TxWx,2013-05-02 01:39:00,
2013-05-01 20:40:00,74.0,73.0,29.80,ESE,112,14.0,14.0,97,0.00,,,0.00,TxWx,2013-05-02 01:40:00,
2013-05-01 20:41:00,74.0,73.0,29.80,SE,135,10.0,11.0,97,0.00,,,0.00,TxWx,2013-05-02 01:41:00,
2013-05-01 20:43:00,74.0,73.0,29.80,ESE,112,13.0,13.0,97,0.00,,,0.00,TxWx,2013-05-02 01:43:00,
2013-05-01 20:45:00,74.0,73.0,29.81,SE,135,10.0,10.0,97,0.00,,,0.00,TxWx,2013-05-02 01:45:00,
2013-05-01 20:46:00,74.0,73.0,29.81,SE,135,11.0,12.0,97,0.00,,,0.00,TxWx,2013-05-02 01:46:00,
2013-05-01 20:48:00,74.0,73.0,29.80,East,90,8.0,8.0,97,0.00,,,0.00,TxWx,2013-05-02 01:48:00,
2013-05-01 20:49:00,74.0,73.0,29.81,East,90,6.0,7.0,97,0.00,,,0.00,TxWx,2013-05-02 01:49:00,
2013-05-01 20:51:00,74.0,73.0,29.81,SE,135,8.0,10.0,97,0.00,,,0.00,TxWx,2013-05-02 01:51:00,
2013-05-01 20:54:00,74.0,73.0,29.81,ESE,112,11.0,12.0,97,0.00,,,0.00,TxWx,2013-05-02 01:54:00,
2013-05-01 20:56:00,74.0,73.0,29.81,SE,135,14.0,15.0,97,0.00,,,0.00,TxWx,2013-05-02 01:56:00,
2013-05-01 20:57:00,74.0,73.0,29.81,ESE,112,10.0,11.0,97,0.00,,,0.00,TxWx,2013-05-02 01:57:00,
2013-05-01 20:59:00,74.0,73.0,29.81,ESE,112,14.0,16.0,97,0.00,,,0.00,TxWx,2013-05-02 01:59:00,
2013-05-01 21:00:00,74.0,73.0,29.81,ESE,112,14.0,14.0,97,0.00,,,0.00,TxWx,2013-05-02 02:00:00,
2013-05-01 21:01:00,74.0,73.0,29.81,ESE,112,14.0,14.0,97,0.00,,,0.00,TxWx,2013-05-02 02:01:00,
2013-05-01 21:02:00,74.0,73.0,29.81,ESE,112,10.0,11.0,97,0.00,,,0.00,TxWx,2013-05-02 02:02:00,
2013-05-01 21:04:00,74.0,73.0,29.81,SE,135,11.0,11.0,97,0.00,,,0.00,TxWx,2013-05-02 02:04:00,
2013-05-01 21:05:00,74.0,73.0,29.81,ESE,112,13.0,13.0,97,0.00,,,0.00,TxWx,2013-05-02 02:05:00,
2013-05-01 21:06:00,74.0,73.0,29.81,ESE,112,10.0,10.0,97,0.00,,,0.00,TxWx,2013-05-02 02:06:00,
2013-05-01 21:07:00,74.0,73.0,29.81,ESE,112,11.0,11.0,97,0.00,,,0.00,TxWx,2013-05-02 02:07:00,
2013-05-01 21:08:00,74.0,73.0,29.81,ESE,112,9.0,9.0,97,0.00,,,0.00,TxWx,2013-05-02 02:08:00,
2013-05-01 21:09:00,74.0,73.0,29.81,ESE,112,10.0,11.0,97,0.00,,,0.00,TxWx,2013-05-02 02:09:00,
2013-05-01 21:12:00,74.0,73.0,29.81,SE,135,8.0,11.0,97,0.00,,,0.00,TxWx,2013-05-02 02:12:00,
2013-05-01 21:14:00,74.0,73.0,29.81,SE,135,12.0,12.0,97,0.00,,,0.00,TxWx,2013-05-02 02:14:00,
2013-05-01 21:15:00,74.0,73.0,29.82,SE,135,11.0,11.0,97,0.00,,,0.00,TxWx,2013-05-02 02:15:00,
2013-05-01 21:17:00,74.0,73.0,29.82,SE,135,11.0,12.0,97,0.00,,,0.00,TxWx,2013-05-02 02:17:00,
2013-05-01 21:20:00,74.0,73.0,29.82,ESE,112,11.0,13.0,97,0.00,,,0.00,TxWx,2013-05-02 02:20:00,
2013-05-01 21:21:00,74.0,73.0,29.82,ESE,112,13.0,13.0,97,0.00,,,0.00,TxWx,2013-05-02 02:21:00,
2013-05-01 21:22:00,74.0,73.0,29.82,ESE,112,14.0,14.0,97,0.00,,,0.00,TxWx,2013-05-02 02:22:00,
2013-05-01 21:23:00,74.0,73.0,29.82,East,90,10.0,11.0,97,0.00,,,0.00,TxWx,2013-05-02 02:23:00,
2013-05-01 21:24:00,74.0,73.0,29.82,SE,135,9.0,10.0,97,0.00,,,0.00,TxWx,2013-05-02 02:24:00,
2013-05-01 21:26:00,74.0,73.0,29.82,SE,135,13.0,13.0,97,0.00,,,0.00,TxWx,2013-05-02 02:26:00,
2013-05-01 21:27:00,74.0,73.0,29.82,ESE,112,10.0,10.0,97,0.00,,,0.00,TxWx,2013-05-02 02:27:00,
2013-05-01 21:28:00,74.0,73.0,29.82,SE,135,9.0,10.0,97,0.00,,,0.00,TxWx,2013-05-02 02:28:00,
2013-05-01 21:30:00,74.0,73.0,29.82,SE,135,11.0,13.0,97,0.00,,,0.00,TxWx,2013-05-02 02:30:00,
2013-05-01 21:32:00,74.0,73.0,29.82,ESE,112,14.0,14.0,97,0.00,,,0.00,TxWx,2013-05-02 02:32:00,
2013-05-01 21:34:00,74.0,73.0,29.82,ESE,112,7.0,7.0,97,0.00,,,0.00,TxWx,2013-05-02 02:34:00,
2013-05-01 21:35:00,74.0,73.0,29.82,East,90,12.0,14.0,97,0.00,,,0.00,TxWx,2013-05-02 02:35:00,
2013-05-01 21:37:00,74.0,73.0,29.82,SE,135,12.0,15.0,97,0.00,,,0.00,TxWx,2013-05-02 02:37:00,
2013-05-01 21:40:00,74.0,73.0,29.82,ESE,112,13.0,13.0,97,0.00,,,0.00,TxWx,2013-05-02 02:40:00,
2013-05-01 21:42:00,74.0,73.0,29.82,ESE,112,13.0,13.0,97,0.00,,,0.00,TxWx,2013-05-02 02:42:00,
2013-05-01 21:43:00,74.0,73.0,29.82,SE,135,14.0,14.0,97,0.00,,,0.00,TxWx,2013-05-02 02:43:00,
2013-05-01 21:47:00,74.0,73.0,29.83,ESE,112,8.0,10.0,98,0.00,,,0.00,TxWx,2013-05-02 02:47:00,
2013-05-01 21:48:00,74.0,73.0,29.83,ESE,112,10.0,11.0,97,0.00,,,0.00,TxWx,2013-05-02 02:48:00,
2013-05-01 21:49:00,74.0,73.0,29.83,ESE,112,13.0,13.0,97,0.00,,,0.00,TxWx,2013-05-02 02:49:00,
2013-05-01 21:51:00,74.0,73.0,29.83,ESE,112,11.0,11.0,98,0.00,,,0.00,TxWx,2013-05-02 02:51:00,
2013-05-01 21:53:00,74.0,73.0,29.83,East,90,6.0,6.0,98,0.00,,,0.00,TxWx,2013-05-02 02:53:00,
2013-05-01 21:54:00,74.0,73.0,29.83,ESE,112,8.0,8.0,98,0.00,,,0.00,TxWx,2013-05-02 02:54:00,
2013-05-01 21:55:00,74.0,73.0,29.83,East,90,6.0,6.0,98,0.00,,,0.00,TxWx,2013-05-02 02:55:00,
2013-05-01 21:56:00,74.0,73.0,29.83,ESE,112,10.0,10.0,98,0.00,,,0.00,TxWx,2013-05-02 02:56:00,
2013-05-01 21:58:00,74.0,73.0,29.83,ESE,112,12.0,12.0,98,0.00,,,0.00,TxWx,2013-05-02 02:58:00,
2013-05-01 21:59:00,74.0,73.0,29.83,East,90,11.0,11.0,98,0.00,,,0.00,TxWx,2013-05-02 02:59:00,
2013-05-01 22:02:00,74.0,73.0,29.83,East,90,8.0,8.0,98,0.00,,,0.00,TxWx,2013-05-02 03:02:00,
2013-05-01 22:03:00,74.0,73.0,29.83,ESE,112,11.0,11.0,98,0.00,,,0.00,TxWx,2013-05-02 03:03:00,
2013-05-01 22:04:00,74.0,73.0,29.83,SE,135,13.0,13.0,98,0.00,,,0.00,TxWx,2013-05-02 03:04:00,
2013-05-01 22:05:00,74.0,73.0,29.83,ESE,112,9.0,9.0,98,0.00,,,0.00,TxWx,2013-05-02 03:05:00,
2013-05-01 22:06:00,74.0,73.0,29.83,SE,135,8.0,8.0,98,0.00,,,0.00,TxWx,2013-05-02 03:06:00,
2013-05-01 22:07:00,74.0,73.0,29.83,SE,135,8.0,9.0,98,0.00,,,0.00,TxWx,2013-05-02 03:07:00,
2013-05-01 22:09:00,74.0,73.0,29.83,East,90,7.0,7.0,98,0.00,,,0.00,TxWx,2013-05-02 03:09:00,
2013-05-01 22:12:00,74.0,73.0,29.83,SE,135,9.0,10.0,97,0.00,,,0.00,TxWx,2013-05-02 03:12:00,
2013-05-01 22:14:00,74.0,73.0,29.83,East,90,5.0,6.0,98,0.00,,,0.00,TxWx,2013-05-02 03:14:00,
2013-05-01 22:15:00,74.0,73.0,29.83,SSE,157,6.0,7.0,97,0.00,,,0.00,TxWx,2013-05-02 03:15:00,
2013-05-01 22:17:00,74.0,73.0,29.83,SE,135,10.0,10.0,98,0.00,,,0.00,TxWx,2013-05-02 03:17:00,
2013-05-01 22:18:00,74.0,73.0,29.83,SE,135,12.0,12.0,97,0.00,,,0.00,TxWx,2013-05-02 03:18:00,
2013-05-01 22:20:00,74.0,73.0,29.83,ESE,112,9.0,9.0,97,0.00,,,0.00,TxWx,2013-05-02 03:20:00,
2013-05-01 22:21:00,74.0,73.0,29.83,East,90,8.0,10.0,97,0.00,,,0.00,TxWx,2013-05-02 03:21:00,
2013-05-01 22:23:00,74.0,73.0,29.83,SE,135,6.0,8.0,97,0.00,,,0.00,TxWx,2013-05-02 03:23:00,
2013-05-01 22:27:00,74.0,73.0,29.83,SE,135,11.0,11.0,97,0.00,,,0.00,TxWx,2013-05-02 03:27:00,
2013-05-01 22:28:00,74.0,73.0,29.83,SE,135,8.0,9.0,97,0.00,,,0.00,TxWx,2013-05-02 03:28:00,
2013-05-01 22:30:00,74.0,73.0,29.83,ESE,112,13.0,14.0,97,0.00,,,0.00,TxWx,2013-05-02 03:30:00,
2013-05-01 22:32:00,74.0,73.0,29.84,East,90,10.0,11.0,97,0.00,,,0.00,TxWx,2013-05-02 03:32:00,
2013-05-01 22:34:00,74.0,73.0,29.84,SE,135,13.0,13.0,97,0.00,,,0.00,TxWx,2013-05-02 03:34:00,
2013-05-01 22:35:00,74.0,73.0,29.84,East,90,11.0,12.0,97,0.00,,,0.00,TxWx,2013-05-02 03:35:00,
2013-05-01 22:37:00,74.0,73.0,29.84,ESE,112,13.0,13.0,97,0.00,,,0.00,TxWx,2013-05-02 03:37:00,
2013-05-01 22:39:00,74.0,73.0,29.84,ESE,112,11.0,11.0,97,0.00,,,0.00,TxWx,2013-05-02 03:39:00,
2013-05-01 22:40:00,74.0,73.0,29.84,ESE,112,10.0,11.0,97,0.00,,,0.00,TxWx,2013-05-02 03:40:00,
2013-05-01 22:42:00,74.0,73.0,29.84,ESE,112,13.0,13.0,97,0.00,,,0.00,TxWx,2013-05-02 03:42:00,
2013-05-01 22:45:00,74.0,73.0,29.84,ESE,112,11.0,11.0,97,0.00,,,0.00,TxWx,2013-05-02 03:45:00,
2013-05-01 22:46:00,74.0,73.0,29.84,ESE,112,12.0,13.0,97,0.00,,,0.00,TxWx,2013-05-02 03:46:00,
2013-05-01 22:47:00,74.0,73.0,29.84,SE,135,10.0,11.0,97,0.00,,,0.00,TxWx,2013-05-02 03:47:00,
2013-05-01 22:51:00,74.0,73.0,29.85,ESE,112,11.0,12.0,97,0.00,,,0.00,TxWx,2013-05-02 03:51:00,
2013-05-01 22:52:00,74.0,73.0,29.85,SE,135,14.0,15.0,97,0.00,,,0.00,TxWx,2013-05-02 03:52:00,
2013-05-01 22:54:00,74.0,73.0,29.85,ESE,112,12.0,12.0,97,0.00,,,0.00,TxWx,2013-05-02 03:54:00,
2013-05-01 22:56:00,74.0,73.0,29.85,ESE,112,10.0,11.0,98,0.00,,,0.00,TxWx,2013-05-02 03:56:00,
2013-05-01 22:57:00,74.0,73.0,29.85,ESE,112,8.0,8.0,98,0.00,,,0.00,TxWx,2013-05-02 03:57:00,
2013-05-01 22:58:00,74.0,73.0,29.85,SE,135,8.0,9.0,98,0.00,,,0.00,TxWx,2013-05-02 03:58:00,
2013-05-01 23:01:00,74.0,73.0,29.85,East,90,8.0,10.0,98,0.00,,,0.00,TxWx,2013-05-02 04:01:00,
2013-05-01 23:02:00,74.0,73.0,29.85,SE,135,6.0,6.0,98,0.00,,,0.00,TxWx,2013-05-02 04:02:00,
2013-05-01 23:03:00,74.0,73.0,29.85,SE,135,13.0,14.0,98,0.00,,,0.00,TxWx,2013-05-02 04:03:00,
2013-05-01 23:06:00,74.0,73.0,29.86,SE,135,7.0,8.0,98,0.00,,,0.00,TxWx,2013-05-02 04:06:00,
2013-05-01 23:08:00,74.0,73.0,29.86,SE,135,10.0,12.0,98,0.00,,,0.00,TxWx,2013-05-02 04:08:00,
2013-05-01 23:09:00,74.0,73.0,29.86,SE,135,11.0,11.0,98,0.00,,,0.00,TxWx,2013-05-02 04:09:00,
2013-05-01 23:12:00,74.0,73.0,29.86,East,90,10.0,10.0,98,0.00,,,0.00,TxWx,2013-05-02 04:12:00,
2013-05-01 23:14:00,74.0,73.0,29.86,ESE,112,8.0,8.0,98,0.00,,,0.00,TxWx,2013-05-02 04:14:00,
2013-05-01 23:16:00,74.0,73.0,29.86,SE,135,7.0,8.0,98,0.00,,,0.00,TxWx,2013-05-02 04:16:00,
2013-05-01 23:18:00,74.0,73.0,29.86,ESE,112,8.0,9.0,98,0.00,,,0.00,TxWx,2013-05-02 04:18:00,
2013-05-01 23:20:00,74.0,73.0,29.86,SE,135,7.0,7.0,98,0.00,,,0.00,TxWx,2013-05-02 04:20:00,
2013-05-01 23:21:00,74.0,73.0,29.86,ESE,112,6.0,6.0,98,0.00,,,0.00,TxWx,2013-05-02 04:21:00,
2013-05-01 23:23:00,74.0,73.0,29.86,SE,135,8.0,8.0,98,0.00,,,0.00,TxWx,2013-05-02 04:23:00,
2013-05-01 23:26:00,74.0,73.0,29.87,SE,135,9.0,10.0,98,0.00,,,0.00,TxWx,2013-05-02 04:26:00,
2013-05-01 23:30:00,74.0,73.0,29.86,ESE,112,10.0,10.0,98,0.00,,,0.00,TxWx,2013-05-02 04:30:00,
2013-05-01 23:31:00,74.0,74.0,29.86,ESE,112,7.0,7.0,99,0.00,,,0.00,TxWx,2013-05-02 04:31:00,
2013-05-01 23:33:00,74.0,74.0,29.86,ESE,112,8.0,9.0,99,0.00,,,0.00,TxWx,2013-05-02 04:33:00,
2013-05-01 23:37:00,74.0,74.0,29.86,SE,135,6.0,6.0,99,0.00,,,0.00,TxWx,2013-05-02 04:37:00,
2013-05-01 23:38:00,74.0,74.0,29.86,SSE,157,4.0,4.0,99,0.00,,,0.00,TxWx,2013-05-02 04:38:00,
2013-05-01 23:39:00,74.0,74.0,29.86,SE,135,6.0,6.0,99,0.00,,,0.00,TxWx,2013-05-02 04:39:00,
2013-05-01 23:41:00,74.0,74.0,29.87,SE,135,8.0,8.0,99,0.00,,,0.00,TxWx,2013-05-02 04:41:00,
2013-05-01 23:43:00,74.0,74.0,29.87,SE,135,8.0,8.0,99,0.00,,,0.00,TxWx,2013-05-02 04:43:00,
2013-05-01 23:44:00,74.0,74.0,29.87,ESE,112,10.0,10.0,99,0.00,,,0.00,TxWx,2013-05-02 04:44:00,
2013-05-01 23:45:00,74.0,74.0,29.87,SE,135,6.0,7.0,99,0.00,,,0.00,TxWx,2013-05-02 04:45:00,
2013-05-01 23:47:00,74.0,74.0,29.87,ESE,112,6.0,6.0,99,0.00,,,0.00,TxWx,2013-05-02 04:47:00,
2013-05-01 23:49:00,74.0,74.0,29.87,SE,135,6.0,6.0,99,0.00,,,0.00,TxWx,2013-05-02 04:49:00,
2013-05-01 23:52:00,74.0,74.0,29.87,ESE,112,7.0,8.0,99,0.00,,,0.00,TxWx,2013-05-02 04:52:00,
2013-05-01 23:53:00,74.0,74.0,29.87,SE,135,7.0,7.0,99,0.00,,,0.00,TxWx,2013-05-02 04:53:00,
2013-05-01 23:54:00,74.0,74.0,29.87,SE,135,6.0,6.0,99,0.00,,,0.00,TxWx,2013-05-02 04:54:00,
2013-05-01 23:58:00,74.0,74.0,29.87,SE,135,6.0,6.0,99,0.00,,,0.00,TxWx,2013-05-02 04:58:00,
2013-05-01 23:59:00,74.0,74.0,29.87,SE,135,9.0,9.0,99,0.00,,,0.00,TxWx,2013-05-02 04:59:00,